Wetterdaten: Dienstag, 04.04.2017
Datum Zeit Temp. A. Feuchte A. Luftdruck Regen Wind Richtung Richtung Sonnenschein ET UV Solar Taupunkt Windchill Windben Empfang
04.04.2017 00:00 9,2 C 94 % 1020,4 hPa 0,2 l/m 9,6 km/h (2 Bft) N-NO 29 0 min 0,000 mm 0,0 UV-I 0 W/m 8,3 C 7,0 C 19,3 km/h (3 Bft) 100,00 %
04.04.2017 00:02 9,2 C 94 % 1020,3 hPa 0,0 l/m 7,9 km/h (2 Bft) N-NW 333 0 min 0,000 mm 0,0 UV-I 0 W/m 8,3 C 8,1 C 14,5 km/h (3 Bft) 97,30 %
04.04.2017 00:04 9,1 C 94 % 1020,3 hPa 0,2 l/m 11,9 km/h (2 Bft) N 5 0 min 0,000 mm 0,0 UV-I 0 W/m 8,2 C 5,5 C 17,7 km/h (3 Bft) 96,00 %
04.04.2017 00:06 9,1 C 94 % 1020,3 hPa 0,0 l/m 7,2 km/h (2 Bft) N-NO 26 0 min 0,000 mm 0,0 UV-I 0 W/m 8,2 C 8,5 C 14,5 km/h (3 Bft) 95,74 %
04.04.2017 00:08 9,1 C 94 % 1020,3 hPa 0,2 l/m 9,1 km/h (2 Bft) N 355 0 min 0,000 mm 0,0 UV-I 0 W/m 8,2 C 7,2 C 14,5 km/h (3 Bft) 100,00 %
04.04.2017 00:10 9,1 C 94 % 1020,3 hPa 0,2 l/m 8,9 km/h (2 Bft) NO 46 0 min 0,000 mm 0,0 UV-I 0 W/m 8,2 C 7,3 C 12,9 km/h (3 Bft) 98,00 %
04.04.2017 00:12 9,1 C 94 % 1020,3 hPa 0,4 l/m 8,1 km/h (2 Bft) NO 46 0 min 0,000 mm 0,0 UV-I 0 W/m 8,2 C 7,8 C 12,9 km/h (3 Bft) 97,37 %
04.04.2017 00:14 9,1 C 94 % 1020,2 hPa 0,2 l/m 8,8 km/h (2 Bft) O-NO 65 0 min 0,000 mm 0,0 UV-I 0 W/m 8,2 C 7,4 C 12,9 km/h (3 Bft) 98,31 %
04.04.2017 00:16 9,1 C 94 % 1020,1 hPa 0,4 l/m 10,6 km/h (2 Bft) O-NO 65 0 min 0,000 mm 0,0 UV-I 0 W/m 8,2 C 6,2 C 14,5 km/h (3 Bft) 100,00 %
04.04.2017 00:18 9,1 C 94 % 1020,1 hPa 0,2 l/m 10,9 km/h (2 Bft) O-NO 67 0 min 0,000 mm 0,0 UV-I 0 W/m 8,2 C 6,1 C 16,1 km/h (3 Bft) 98,11 %
04.04.2017 00:20 9,1 C 94 % 1020,1 hPa 0,4 l/m 9,3 km/h (2 Bft) O 80 0 min 0,000 mm 0,0 UV-I 0 W/m 8,2 C 7,0 C 14,5 km/h (3 Bft) 97,73 %
04.04.2017 00:22 9,2 C 94 % 1020,1 hPa 0,4 l/m 9,2 km/h (2 Bft) O-NO 66 0 min 0,000 mm 0,0 UV-I 0 W/m 8,3 C 7,2 C 14,5 km/h (3 Bft) 100,00 %
04.04.2017 00:24 9,2 C 94 % 1020,0 hPa 0,4 l/m 12,6 km/h (3 Bft) O 80 0 min 0,000 mm 0,0 UV-I 0 W/m 8,3 C 5,3 C 17,7 km/h (3 Bft) 95,45 %
04.04.2017 00:26 9,2 C 94 % 1019,9 hPa 0,2 l/m 7,6 km/h (2 Bft) O-NO 72 0 min 0,000 mm 0,0 UV-I 0 W/m 8,3 C 8,3 C 12,9 km/h (3 Bft) 100,00 %
04.04.2017 00:28 9,2 C 94 % 1019,9 hPa 0,4 l/m 10,2 km/h (2 Bft) NO 52 0 min 0,000 mm 0,0 UV-I 0 W/m 8,3 C 6,6 C 19,3 km/h (3 Bft) 97,56 %
04.04.2017 00:30 9,2 C 95 % 1020,0 hPa 0,4 l/m 7,8 km/h (2 Bft) NO 38 0 min 0,000 mm 0,0 UV-I 0 W/m 8,4 C 8,2 C 14,5 km/h (3 Bft) 96,23 %
04.04.2017 00:32 9,3 C 95 % 1020,2 hPa 0,2 l/m 3,9 km/h (1 Bft) W 275 0 min 0,000 mm 0,0 UV-I 0 W/m 8,5 C 9,3 C 8,0 km/h (2 Bft) 97,56 %
04.04.2017 00:34 9,3 C 94 % 1020,3 hPa 0,0 l/m 3,2 km/h (1 Bft) W-SW 240 0 min 0,000 mm 0,0 UV-I 0 W/m 8,4 C 9,3 C 6,4 km/h (2 Bft) 96,00 %
04.04.2017 00:36 9,3 C 95 % 1020,4 hPa 0,0 l/m 4,8 km/h (1 Bft) W-SW 246 0 min 0,000 mm 0,0 UV-I 0 W/m 8,5 C 9,3 C 6,4 km/h (2 Bft) 96,23 %
04.04.2017 00:38 9,3 C 95 % 1020,4 hPa 0,0 l/m 6,0 km/h (2 Bft) W-SW 246 0 min 0,000 mm 0,0 UV-I 0 W/m 8,5 C 9,3 C 11,3 km/h (2 Bft) 95,12 %
04.04.2017 00:40 9,3 C 95 % 1020,4 hPa 0,2 l/m 5,5 km/h (1 Bft) W-SW 251 0 min 0,000 mm 0,0 UV-I 0 W/m 8,5 C 9,3 C 6,4 km/h (2 Bft) 97,73 %
04.04.2017 00:42 9,3 C 95 % 1020,4 hPa 0,0 l/m 5,4 km/h (1 Bft) W-SW 246 0 min 0,000 mm 0,0 UV-I 0 W/m 8,5 C 9,3 C 8,0 km/h (2 Bft) 92,45 %
04.04.2017 00:44 9,3 C 95 % 1020,4 hPa 0,0 l/m 3,9 km/h (1 Bft) W-SW 255 0 min 0,000 mm 0,0 UV-I 0 W/m 8,5 C 9,3 C 6,4 km/h (2 Bft) 95,74 %
04.04.2017 00:46 9,3 C 95 % 1020,4 hPa 0,0 l/m 6,1 km/h (2 Bft) W-SW 254 0 min 0,000 mm 0,0 UV-I 0 W/m 8,5 C 9,3 C 9,7 km/h (2 Bft) 97,37 %
04.04.2017 00:48 9,2 C 95 % 1020,4 hPa 0,2 l/m 6,1 km/h (2 Bft) W-SW 238 0 min 0,000 mm 0,0 UV-I 0 W/m 8,4 C 9,2 C 11,3 km/h (2 Bft) 95,74 %
04.04.2017 00:50 9,2 C 95 % 1020,4 hPa 0,0 l/m 3,9 km/h (1 Bft) W-SW 238 0 min 0,000 mm 0,0 UV-I 0 W/m 8,4 C 9,2 C 8,0 km/h (2 Bft) 98,00 %
04.04.2017 00:52 9,2 C 95 % 1020,5 hPa 0,0 l/m 3,7 km/h (1 Bft) W-SW 238 0 min 0,000 mm 0,0 UV-I 0 W/m 8,4 C 9,2 C 4,8 km/h (1 Bft) 98,00 %
04.04.2017 00:54 9,2 C 95 % 1020,5 hPa 0,0 l/m 3,5 km/h (1 Bft) W-SW 238 0 min 0,000 mm 0,0 UV-I 0 W/m 8,4 C 9,2 C 6,4 km/h (2 Bft) 97,37 %
04.04.2017 00:56 9,2 C 95 % 1020,5 hPa 0,0 l/m 1,4 km/h (1 Bft) W-SW 238 0 min 0,000 mm 0,0 UV-I 0 W/m 8,4 C 9,2 C 3,2 km/h (1 Bft) 94,00 %
04.04.2017 00:58 9,2 C 95 % 1020,5 hPa 0,0 l/m 2,4 km/h (1 Bft) W-SW 238 0 min 0,000 mm 0,0 UV-I 0 W/m 8,4 C 9,2 C 4,8 km/h (1 Bft) 97,92 %
04.04.2017 01:00 9,2 C 95 % 1020,5 hPa 0,0 l/m 4,1 km/h (1 Bft) SW 236 0 min 0,000 mm 0,0 UV-I 0 W/m 8,4 C 9,2 C 6,4 km/h (2 Bft) 94,74 %
04.04.2017 01:02 9,2 C 95 % 1020,6 hPa 0,2 l/m 3,4 km/h (1 Bft) SW 236 0 min 0,000 mm 0,0 UV-I 0 W/m 8,4 C 9,2 C 4,8 km/h (1 Bft) 96,88 %
04.04.2017 01:04 9,2 C 95 % 1020,6 hPa 0,0 l/m 3,8 km/h (1 Bft) SW 232 0 min 0,000 mm 0,0 UV-I 0 W/m 8,4 C 9,2 C 6,4 km/h (2 Bft) 94,87 %
04.04.2017 01:06 9,2 C 95 % 1020,6 hPa 0,0 l/m 3,0 km/h (1 Bft) SW 232 0 min 0,000 mm 0,0 UV-I 0 W/m 8,4 C 9,2 C 6,4 km/h (2 Bft) 100,00 %
04.04.2017 01:08 9,2 C 95 % 1020,5 hPa 0,0 l/m 3,8 km/h (1 Bft) SW 232 0 min 0,000 mm 0,0 UV-I 0 W/m 8,4 C 9,2 C 4,8 km/h (1 Bft) 100,00 %
04.04.2017 01:10 9,2 C 95 % 1020,5 hPa 0,0 l/m 3,3 km/h (1 Bft) SW 232 0 min 0,000 mm 0,0 UV-I 0 W/m 8,4 C 9,2 C 4,8 km/h (1 Bft) 97,87 %
04.04.2017 01:12 9,2 C 95 % 1020,5 hPa 0,0 l/m 2,0 km/h (1 Bft) SW 232 0 min 0,000 mm 0,0 UV-I 0 W/m 8,4 C 9,2 C 3,2 km/h (1 Bft) 100,00 %
04.04.2017 01:14 9,3 C 95 % 1020,4 hPa 0,0 l/m 1,2 km/h (1 Bft) SW 232 0 min 0,000 mm 0,0 UV-I 0 W/m 8,5 C 9,3 C 3,2 km/h (1 Bft) 97,87 %
04.04.2017 01:16 9,3 C 95 % 1020,5 hPa 0,0 l/m 1,9 km/h (1 Bft) SW 232 0 min 0,000 mm 0,0 UV-I 0 W/m 8,5 C 9,3 C 4,8 km/h (1 Bft) 100,00 %
04.04.2017 01:18 9,3 C 95 % 1020,5 hPa 0,0 l/m 0,6 km/h (0 Bft) SW 232 0 min 0,000 mm 0,0 UV-I 0 W/m 8,5 C 9,3 C 1,6 km/h (1 Bft) 98,00 %
04.04.2017 01:20 9,3 C 95 % 1020,5 hPa 0,0 l/m 0,4 km/h (0 Bft) SW 232 0 min 0,000 mm 0,0 UV-I 0 W/m 8,5 C 9,3 C 1,6 km/h (1 Bft) 96,00 %
04.04.2017 01:22 9,2 C 95 % 1020,4 hPa 0,0 l/m 0,6 km/h (0 Bft) SW 232 0 min 0,000 mm 0,0 UV-I 0 W/m 8,4 C 9,2 C 1,6 km/h (1 Bft) 97,37 %
04.04.2017 01:24 9,3 C 96 % 1020,4 hPa 0,0 l/m 1,1 km/h (1 Bft) SW 232 0 min 0,000 mm 0,0 UV-I 0 W/m 8,7 C 9,3 C 3,2 km/h (1 Bft) 100,00 %
04.04.2017 01:26 9,3 C 96 % 1020,4 hPa 0,0 l/m 2,2 km/h (1 Bft) SW 232 0 min 0,000 mm 0,0 UV-I 0 W/m 8,7 C 9,3 C 3,2 km/h (1 Bft) 96,30 %
04.04.2017 01:28 9,3 C 96 % 1020,5 hPa 0,0 l/m 1,7 km/h (1 Bft) SW 232 0 min 0,000 mm 0,0 UV-I 0 W/m 8,7 C 9,3 C 3,2 km/h (1 Bft) 98,44 %
04.04.2017 01:30 9,3 C 96 % 1020,4 hPa 0,0 l/m 1,4 km/h (1 Bft) SW 232 0 min 0,000 mm 0,0 UV-I 0 W/m 8,7 C 9,3 C 3,2 km/h (1 Bft) 95,74 %
04.04.2017 01:32 9,3 C 96 % 1020,3 hPa 0,0 l/m 1,5 km/h (1 Bft) SW 232 0 min 0,000 mm 0,0 UV-I 0 W/m 8,7 C 9,3 C 3,2 km/h (1 Bft) 100,00 %
04.04.2017 01:34 9,3 C 96 % 1020,3 hPa 0,0 l/m 1,3 km/h (1 Bft) SW 232 0 min 0,000 mm 0,0 UV-I 0 W/m 8,7 C 9,3 C 3,2 km/h (1 Bft) 100,00 %
04.04.2017 01:36 9,3 C 96 % 1020,3 hPa 0,0 l/m 1,5 km/h (1 Bft) SW 232 0 min 0,000 mm 0,0 UV-I 0 W/m 8,7 C 9,3 C 3,2 km/h (1 Bft) 100,00 %
04.04.2017 01:38 9,3 C 96 % 1020,2 hPa 0,0 l/m 0,5 km/h (0 Bft) SW 232 0 min 0,000 mm 0,0 UV-I 0 W/m 8,7 C 9,3 C 1,6 km/h (1 Bft) 100,00 %
04.04.2017 01:40 9,3 C 96 % 1020,2 hPa 0,0 l/m 0,6 km/h (0 Bft) SW 232 0 min 0,000 mm 0,0 UV-I 0 W/m 8,7 C 9,3 C 3,2 km/h (1 Bft) 98,00 %
04.04.2017 01:42 9,3 C 96 % 1020,2 hPa 0,0 l/m 0,7 km/h (0 Bft) SW 232 0 min 0,000 mm 0,0 UV-I 0 W/m 8,7 C 9,3 C 3,2 km/h (1 Bft) 100,00 %
04.04.2017 01:44 9,3 C 96 % 1020,2 hPa 0,0 l/m 0,2 km/h (0 Bft) SW 232 0 min 0,000 mm 0,0 UV-I 0 W/m 8,7 C 9,3 C 1,6 km/h (1 Bft) 95,74 %
04.04.2017 01:46 9,3 C 96 % 1020,1 hPa 0,0 l/m 0,3 km/h (0 Bft) SW 232 0 min 0,000 mm 0,0 UV-I 0 W/m 8,7 C 9,3 C 1,6 km/h (1 Bft) 100,00 %
04.04.2017 01:48 9,3 C 96 % 1020,1 hPa 0,0 l/m 0,4 km/h (0 Bft) SW 232 0 min 0,000 mm 0,0 UV-I 0 W/m 8,7 C 9,3 C 1,6 km/h (1 Bft) 97,56 %
04.04.2017 01:50 9,2 C 96 % 1020,1 hPa 0,0 l/m 0,0 km/h (0 Bft) SW 232 0 min 0,000 mm 0,0 UV-I 0 W/m 8,6 C 9,2 C 1,6 km/h (1 Bft) 100,00 %
04.04.2017 01:52 9,3 C 96 % 1020,1 hPa 0,0 l/m 0,4 km/h (0 Bft) SW 232 0 min 0,000 mm 0,0 UV-I 0 W/m 8,7 C 9,3 C 1,6 km/h (1 Bft) 97,87 %
04.04.2017 01:54 9,2 C 96 % 1020,0 hPa 0,0 l/m 0,2 km/h (0 Bft) SW 232 0 min 0,000 mm 0,0 UV-I 0 W/m 8,6 C 9,2 C 1,6 km/h (1 Bft) 97,73 %
04.04.2017 01:56 9,2 C 96 % 1020,0 hPa 0,0 l/m 1,0 km/h (0 Bft) SW 232 0 min 0,000 mm 0,0 UV-I 0 W/m 8,6 C 9,2 C 3,2 km/h (1 Bft) 98,00 %
04.04.2017 01:58 9,3 C 96 % 1020,0 hPa 0,0 l/m 1,3 km/h (1 Bft) SW 232 0 min 0,000 mm 0,0 UV-I 0 W/m 8,7 C 9,3 C 3,2 km/h (1 Bft) 95,74 %
04.04.2017 02:00 9,3 C 96 % 1020,0 hPa 0,0 l/m 0,2 km/h (0 Bft) SW 232 0 min 0,000 mm 0,0 UV-I 0 W/m 8,7 C 9,3 C 1,6 km/h (1 Bft) 95,45 %
04.04.2017 02:02 9,2 C 96 % 1020,0 hPa 0,0 l/m 0,0 km/h (0 Bft) SW 232 0 min 0,000 mm 0,0 UV-I 0 W/m 8,6 C 9,2 C 0,0 km/h (0 Bft) 95,74 %
04.04.2017 02:04 9,3 C 96 % 1020,0 hPa 0,0 l/m 0,0 km/h (0 Bft) SW 232 0 min 0,000 mm 0,0 UV-I 0 W/m 8,7 C 9,3 C 0,0 km/h (0 Bft) 97,56 %
04.04.2017 02:06 9,2 C 96 % 1020,0 hPa 0,0 l/m 0,0 km/h (0 Bft) SW 232 0 min 0,000 mm 0,0 UV-I 0 W/m 8,6 C 9,2 C 0,0 km/h (0 Bft) 96,00 %
04.04.2017 02:08 9,2 C 96 % 1020,0 hPa 0,0 l/m 0,7 km/h (0 Bft) SW 232 0 min 0,000 mm 0,0 UV-I 0 W/m 8,6 C 9,2 C 3,2 km/h (1 Bft) 96,00 %
04.04.2017 02:10 9,2 C 96 % 1020,0 hPa 0,0 l/m 0,0 km/h (0 Bft) SW 232 0 min 0,000 mm 0,0 UV-I 0 W/m 8,6 C 9,2 C 1,6 km/h (1 Bft) 95,12 %
04.04.2017 02:12 9,3 C 96 % 1020,0 hPa 0,0 l/m 0,0 km/h (0 Bft) SW 232 0 min 0,000 mm 0,0 UV-I 0 W/m 8,7 C 9,3 C 0,0 km/h (0 Bft) 97,87 %
04.04.2017 02:14 9,2 C 96 % 1020,0 hPa 0,0 l/m 0,0 km/h (0 Bft) SW 232 0 min 0,000 mm 0,0 UV-I 0 W/m 8,6 C 9,2 C 0,0 km/h (0 Bft) 98,00 %
04.04.2017 02:16 9,2 C 96 % 1020,0 hPa 0,0 l/m 0,0 km/h (0 Bft) SW 232 0 min 0,000 mm 0,0 UV-I 0 W/m 8,6 C 9,2 C 0,0 km/h (0 Bft) 96,00 %
04.04.2017 02:18 9,2 C 96 % 1020,0 hPa 0,0 l/m 0,0 km/h (0 Bft) SW 232 0 min 0,000 mm 0,0 UV-I 0 W/m 8,6 C 9,2 C 0,0 km/h (0 Bft) 96,00 %
04.04.2017 02:20 9,2 C 96 % 1020,0 hPa 0,0 l/m 0,2 km/h (0 Bft) SW 232 0 min 0,000 mm 0,0 UV-I 0 W/m 8,6 C 9,2 C 1,6 km/h (1 Bft) 97,87 %
04.04.2017 02:22 9,2 C 96 % 1020,0 hPa 0,0 l/m 0,0 km/h (0 Bft) SW 232 0 min 0,000 mm 0,0 UV-I 0 W/m 8,6 C 9,2 C 0,0 km/h (0 Bft) 97,22 %
04.04.2017 02:24 9,2 C 96 % 1019,9 hPa 0,0 l/m 0,0 km/h (0 Bft) SW 232 0 min 0,000 mm 0,0 UV-I 0 W/m 8,6 C 9,2 C 0,0 km/h (0 Bft) 96,23 %
04.04.2017 02:26 9,2 C 96 % 1019,9 hPa 0,0 l/m 0,0 km/h (0 Bft) SW 232 0 min 0,000 mm 0,0 UV-I 0 W/m 8,6 C 9,2 C 0,0 km/h (0 Bft) 92,00 %
04.04.2017 02:28 9,2 C 96 % 1019,9 hPa 0,0 l/m 0,0 km/h (0 Bft) SW 232 0 min 0,000 mm 0,0 UV-I 0 W/m 8,6 C 9,2 C 0,0 km/h (0 Bft) 96,00 %
04.04.2017 02:30 9,2 C 96 % 1019,9 hPa 0,0 l/m 0,0 km/h (0 Bft) SW 232 0 min 0,000 mm 0,0 UV-I 0 W/m 8,6 C 9,2 C 0,0 km/h (0 Bft) 97,37 %
04.04.2017 02:32 9,2 C 96 % 1019,9 hPa 0,0 l/m 0,0 km/h (0 Bft) SW 232 0 min 0,000 mm 0,0 UV-I 0 W/m 8,6 C 9,2 C 0,0 km/h (0 Bft) 94,00 %
04.04.2017 02:34 9,2 C 96 % 1019,9 hPa 0,0 l/m 0,0 km/h (0 Bft) SW 232 0 min 0,000 mm 0,0 UV-I 0 W/m 8,6 C 9,2 C 0,0 km/h (0 Bft) 92,11 %
04.04.2017 02:36 9,2 C 96 % 1019,9 hPa 0,0 l/m 0,0 km/h (0 Bft) SW 232 0 min 0,000 mm 0,0 UV-I 0 W/m 8,6 C 9,2 C 0,0 km/h (0 Bft) 94,64 %
04.04.2017 02:38 9,2 C 96 % 1019,8 hPa 0,0 l/m 0,0 km/h (0 Bft) SW 232 0 min 0,000 mm 0,0 UV-I 0 W/m 8,6 C 9,2 C 0,0 km/h (0 Bft) 91,49 %
04.04.2017 02:40 9,2 C 96 % 1019,9 hPa 0,0 l/m 0,0 km/h (0 Bft) SW 232 0 min 0,000 mm 0,0 UV-I 0 W/m 8,6 C 9,2 C 0,0 km/h (0 Bft) 95,74 %
04.04.2017 02:42 9,2 C 96 % 1019,8 hPa 0,0 l/m 0,0 km/h (0 Bft) SW 232 0 min 0,000 mm 0,0 UV-I 0 W/m 8,6 C 9,2 C 0,0 km/h (0 Bft) 92,68 %
04.04.2017 02:44 9,1 C 96 % 1019,8 hPa 0,0 l/m 0,7 km/h (0 Bft) SW 232 0 min 0,000 mm 0,0 UV-I 0 W/m 8,5 C 9,1 C 1,6 km/h (1 Bft) 95,74 %
04.04.2017 02:46 9,1 C 96 % 1019,8 hPa 0,0 l/m 0,1 km/h (0 Bft) SW 232 0 min 0,000 mm 0,0 UV-I 0 W/m 8,5 C 9,1 C 1,6 km/h (1 Bft) 89,36 %
04.04.2017 02:48 9,2 C 96 % 1019,8 hPa 0,0 l/m 0,0 km/h (0 Bft) SW 232 0 min 0,000 mm 0,0 UV-I 0 W/m 8,6 C 9,2 C 1,6 km/h (1 Bft) 96,00 %
04.04.2017 02:50 9,2 C 96 % 1019,8 hPa 0,0 l/m 0,3 km/h (0 Bft) SW 232 0 min 0,000 mm 0,0 UV-I 0 W/m 8,6 C 9,2 C 1,6 km/h (1 Bft) 93,62 %
04.04.2017 02:52 9,2 C 96 % 1019,8 hPa 0,0 l/m 0,0 km/h (0 Bft) SW 232 0 min 0,000 mm 0,0 UV-I 0 W/m 8,6 C 9,2 C 0,0 km/h (0 Bft) 94,34 %
04.04.2017 02:54 9,2 C 96 % 1019,7 hPa 0,0 l/m 0,0 km/h (0 Bft) SW 232 0 min 0,000 mm 0,0 UV-I 0 W/m 8,6 C 9,2 C 0,0 km/h (0 Bft) 91,67 %
04.04.2017 02:56 9,1 C 96 % 1019,7 hPa 0,0 l/m 0,0 km/h (0 Bft) SW 232 0 min 0,000 mm 0,0 UV-I 0 W/m 8,5 C 9,1 C 0,0 km/h (0 Bft) 94,03 %
04.04.2017 02:58 9,1 C 96 % 1019,7 hPa 0,0 l/m 0,0 km/h (0 Bft) SW 232 0 min 0,000 mm 0,0 UV-I 0 W/m 8,5 C 9,1 C 0,0 km/h (0 Bft) 94,44 %
04.04.2017 03:00 9,1 C 96 % 1019,7 hPa 0,0 l/m 0,0 km/h (0 Bft) SW 232 0 min 0,000 mm 0,0 UV-I 0 W/m 8,5 C 9,1 C 0,0 km/h (0 Bft) 94,34 %
04.04.2017 03:02 9,1 C 96 % 1019,7 hPa 0,0 l/m 0,0 km/h (0 Bft) SW 232 0 min 0,000 mm 0,0 UV-I 0 W/m 8,5 C 9,1 C 1,6 km/h (1 Bft) 94,74 %
04.04.2017 03:04 9,1 C 96 % 1019,7 hPa 0,0 l/m 0,5 km/h (0 Bft) SW 232 0 min 0,000 mm 0,0 UV-I 0 W/m 8,5 C 9,1 C 1,6 km/h (1 Bft) 93,22 %
04.04.2017 03:06 9,2 C 96 % 1019,7 hPa 0,0 l/m 0,0 km/h (0 Bft) SW 232 0 min 0,000 mm 0,0 UV-I 0 W/m 8,6 C 9,2 C 0,0 km/h (0 Bft) 98,04 %
04.04.2017 03:08 9,1 C 96 % 1019,7 hPa 0,0 l/m 0,1 km/h (0 Bft) SW 232 0 min 0,000 mm 0,0 UV-I 0 W/m 8,5 C 9,1 C 1,6 km/h (1 Bft) 97,37 %
04.04.2017 03:10 9,1 C 96 % 1019,7 hPa 0,0 l/m 0,2 km/h (0 Bft) SW 232 0 min 0,000 mm 0,0 UV-I 0 W/m 8,5 C 9,1 C 1,6 km/h (1 Bft) 100,00 %
04.04.2017 03:12 9,1 C 96 % 1019,7 hPa 0,0 l/m 0,5 km/h (0 Bft) SW 232 0 min 0,000 mm 0,0 UV-I 0 W/m 8,5 C 9,1 C 1,6 km/h (1 Bft) 98,00 %
04.04.2017 03:14 9,1 C 96 % 1019,7 hPa 0,2 l/m 0,0 km/h (0 Bft) SW 232 0 min 0,000 mm 0,0 UV-I 0 W/m 8,5 C 9,1 C 0,0 km/h (0 Bft) 100,00 %
04.04.2017 03:16 9,2 C 96 % 1019,7 hPa 0,0 l/m 0,0 km/h (0 Bft) SW 232 0 min 0,000 mm 0,0 UV-I 0 W/m 8,6 C 9,2 C 0,0 km/h (0 Bft) 97,92 %
04.04.2017 03:18 9,1 C 96 % 1019,7 hPa 0,0 l/m 0,0 km/h (0 Bft) SW 232 0 min 0,000 mm 0,0 UV-I 0 W/m 8,5 C 9,1 C 0,0 km/h (0 Bft) 95,74 %
04.04.2017 03:20 9,1 C 96 % 1019,7 hPa 0,0 l/m 0,0 km/h (0 Bft) SW 232 0 min 0,000 mm 0,0 UV-I 0 W/m 8,5 C 9,1 C 0,0 km/h (0 Bft) 100,00 %
04.04.2017 03:22 9,1 C 96 % 1019,6 hPa 0,0 l/m 0,1 km/h (0 Bft) SW 232 0 min 0,000 mm 0,0 UV-I 0 W/m 8,5 C 9,1 C 1,6 km/h (1 Bft) 98,00 %
04.04.2017 03:24 9,1 C 96 % 1019,6 hPa 0,0 l/m 0,0 km/h (0 Bft) SW 232 0 min 0,000 mm 0,0 UV-I 0 W/m 8,5 C 9,1 C 0,0 km/h (0 Bft) 98,11 %
04.04.2017 03:26 9,1 C 96 % 1019,6 hPa 0,0 l/m 0,0 km/h (0 Bft) SW 232 0 min 0,000 mm 0,0 UV-I 0 W/m 8,5 C 9,1 C 0,0 km/h (0 Bft) 100,00 %
04.04.2017 03:28 9,2 C 96 % 1019,6 hPa 0,2 l/m 0,0 km/h (0 Bft) SW 232 0 min 0,000 mm 0,0 UV-I 0 W/m 8,6 C 9,2 C 0,0 km/h (0 Bft) 100,00 %
04.04.2017 03:30 9,2 C 96 % 1019,6 hPa 0,0 l/m 0,0 km/h (0 Bft) SW 232 0 min 0,000 mm 0,0 UV-I 0 W/m 8,6 C 9,2 C 0,0 km/h (0 Bft) 100,00 %
04.04.2017 03:32 9,1 C 96 % 1019,6 hPa 0,0 l/m 0,0 km/h (0 Bft) SW 232 0 min 0,000 mm 0,0 UV-I 0 W/m 8,5 C 9,1 C 0,0 km/h (0 Bft) 98,15 %
04.04.2017 03:34 9,1 C 96 % 1019,6 hPa 0,0 l/m 0,0 km/h (0 Bft) SW 232 0 min 0,000 mm 0,0 UV-I 0 W/m 8,5 C 9,1 C 0,0 km/h (0 Bft) 98,00 %
04.04.2017 03:36 9,1 C 96 % 1019,6 hPa 0,0 l/m 0,0 km/h (0 Bft) SW 232 0 min 0,000 mm 0,0 UV-I 0 W/m 8,5 C 9,1 C 0,0 km/h (0 Bft) 100,00 %
04.04.2017 03:38 9,1 C 96 % 1019,6 hPa 0,0 l/m 0,4 km/h (0 Bft) SW 232 0 min 0,000 mm 0,0 UV-I 0 W/m 8,5 C 9,1 C 1,6 km/h (1 Bft) 96,23 %
04.04.2017 03:40 9,1 C 96 % 1019,6 hPa 0,0 l/m 0,0 km/h (0 Bft) SW 232 0 min 0,000 mm 0,0 UV-I 0 W/m 8,5 C 9,1 C 0,0 km/h (0 Bft) 97,44 %
04.04.2017 03:42 9,1 C 96 % 1019,6 hPa 0,0 l/m 0,0 km/h (0 Bft) SW 232 0 min 0,000 mm 0,0 UV-I 0 W/m 8,5 C 9,1 C 0,0 km/h (0 Bft) 100,00 %
04.04.2017 03:44 9,2 C 96 % 1019,6 hPa 0,0 l/m 0,0 km/h (0 Bft) SW 232 0 min 0,000 mm 0,0 UV-I 0 W/m 8,6 C 9,2 C 0,0 km/h (0 Bft) 98,00 %
04.04.2017 03:46 9,1 C 96 % 1019,6 hPa 0,2 l/m 0,0 km/h (0 Bft) SW 232 0 min 0,000 mm 0,0 UV-I 0 W/m 8,5 C 9,1 C 0,0 km/h (0 Bft) 95,74 %
04.04.2017 03:48 9,1 C 96 % 1019,6 hPa 0,0 l/m 0,0 km/h (0 Bft) SW 232 0 min 0,000 mm 0,0 UV-I 0 W/m 8,5 C 9,1 C 0,0 km/h (0 Bft) 100,00 %
04.04.2017 03:50 9,1 C 96 % 1019,6 hPa 0,0 l/m 0,0 km/h (0 Bft) SW 232 0 min 0,000 mm 0,0 UV-I 0 W/m 8,5 C 9,1 C 1,6 km/h (1 Bft) 92,68 %
04.04.2017 03:52 9,1 C 96 % 1019,6 hPa 0,0 l/m 0,0 km/h (0 Bft) SW 232 0 min 0,000 mm 0,0 UV-I 0 W/m 8,5 C 9,1 C 0,0 km/h (0 Bft) 100,00 %
04.04.2017 03:54 9,1 C 96 % 1019,6 hPa 0,0 l/m 0,0 km/h (0 Bft) SW 232 0 min 0,000 mm 0,0 UV-I 0 W/m 8,5 C 9,1 C 1,6 km/h (1 Bft) 97,87 %
04.04.2017 03:56 9,1 C 97 % 1019,7 hPa 0,0 l/m 0,4 km/h (0 Bft) SW 232 0 min 0,000 mm 0,0 UV-I 0 W/m 8,6 C 9,1 C 1,6 km/h (1 Bft) 100,00 %
04.04.2017 03:58 9,1 C 97 % 1019,7 hPa 0,0 l/m 0,0 km/h (0 Bft) SW 232 0 min 0,000 mm 0,0 UV-I 0 W/m 8,6 C 9,1 C 0,0 km/h (0 Bft) 97,87 %
04.04.2017 04:00 9,1 C 97 % 1019,6 hPa 0,2 l/m 1,4 km/h (1 Bft) NW 320 0 min 0,000 mm 0,0 UV-I 0 W/m 8,6 C 9,1 C 4,8 km/h (1 Bft) 97,56 %
04.04.2017 04:02 9,0 C 96 % 1019,6 hPa 0,0 l/m 1,9 km/h (1 Bft) NW 321 0 min 0,000 mm 0,0 UV-I 0 W/m 8,4 C 9,0 C 4,8 km/h (1 Bft) 95,83 %
04.04.2017 04:04 8,9 C 96 % 1019,5 hPa 0,0 l/m 1,5 km/h (1 Bft) NW 311 0 min 0,000 mm 0,0 UV-I 0 W/m 8,3 C 8,9 C 4,8 km/h (1 Bft) 100,00 %
04.04.2017 04:06 8,9 C 96 % 1019,5 hPa 0,0 l/m 0,4 km/h (0 Bft) NW 311 0 min 0,000 mm 0,0 UV-I 0 W/m 8,3 C 8,9 C 3,2 km/h (1 Bft) 100,00 %
04.04.2017 04:08 8,8 C 96 % 1019,6 hPa 0,2 l/m 1,3 km/h (1 Bft) NW 322 0 min 0,000 mm 0,0 UV-I 0 W/m 8,2 C 8,8 C 3,2 km/h (1 Bft) 100,00 %
04.04.2017 04:10 8,8 C 96 % 1019,5 hPa 0,0 l/m 1,3 km/h (1 Bft) NW 322 0 min 0,000 mm 0,0 UV-I 0 W/m 8,2 C 8,8 C 3,2 km/h (1 Bft) 100,00 %
04.04.2017 04:12 8,8 C 96 % 1019,6 hPa 0,0 l/m 0,6 km/h (0 Bft) NW 313 0 min 0,000 mm 0,0 UV-I 0 W/m 8,2 C 8,8 C 3,2 km/h (1 Bft) 94,64 %
04.04.2017 04:14 8,7 C 96 % 1019,6 hPa 0,0 l/m 0,1 km/h (0 Bft) NW 313 0 min 0,000 mm 0,0 UV-I 0 W/m 8,1 C 8,7 C 1,6 km/h (1 Bft) 97,87 %
04.04.2017 04:16 8,7 C 96 % 1019,6 hPa 0,0 l/m 0,0 km/h (0 Bft) NW 313 0 min 0,000 mm 0,0 UV-I 0 W/m 8,1 C 8,7 C 0,0 km/h (0 Bft) 98,00 %
04.04.2017 04:18 8,7 C 96 % 1019,6 hPa 0,0 l/m 0,0 km/h (0 Bft) NW 313 0 min 0,000 mm 0,0 UV-I 0 W/m 8,1 C 8,7 C 0,0 km/h (0 Bft) 100,00 %
04.04.2017 04:20 8,7 C 96 % 1019,7 hPa 0,0 l/m 0,0 km/h (0 Bft) NW 313 0 min 0,000 mm 0,0 UV-I 0 W/m 8,1 C 8,7 C 0,0 km/h (0 Bft) 97,87 %
04.04.2017 04:22 8,7 C 97 % 1019,6 hPa 0,2 l/m 0,0 km/h (0 Bft) NW 313 0 min 0,000 mm 0,0 UV-I 0 W/m 8,3 C 8,7 C 0,0 km/h (0 Bft) 98,00 %
04.04.2017 04:24 8,7 C 97 % 1019,6 hPa 0,2 l/m 0,0 km/h (0 Bft) NW 313 0 min 0,000 mm 0,0 UV-I 0 W/m 8,3 C 8,7 C 0,0 km/h (0 Bft) 98,00 %
04.04.2017 04:26 8,7 C 96 % 1019,6 hPa 0,0 l/m 0,0 km/h (0 Bft) NW 313 0 min 0,000 mm 0,0 UV-I 0 W/m 8,1 C 8,7 C 0,0 km/h (0 Bft) 100,00 %
04.04.2017 04:28 8,6 C 96 % 1019,5 hPa 0,2 l/m 0,3 km/h (0 Bft) NW 313 0 min 0,000 mm 0,0 UV-I 0 W/m 8,0 C 8,6 C 1,6 km/h (1 Bft) 98,00 %
04.04.2017 04:30 8,6 C 96 % 1019,5 hPa 0,0 l/m 0,6 km/h (0 Bft) NW 313 0 min 0,000 mm 0,0 UV-I 0 W/m 8,0 C 8,6 C 3,2 km/h (1 Bft) 100,00 %
04.04.2017 04:32 8,5 C 96 % 1019,5 hPa 0,0 l/m 1,7 km/h (1 Bft) NW 313 0 min 0,000 mm 0,0 UV-I 0 W/m 7,9 C 8,5 C 3,2 km/h (1 Bft) 95,74 %
04.04.2017 04:34 8,5 C 96 % 1019,4 hPa 0,2 l/m 2,9 km/h (1 Bft) NW 320 0 min 0,000 mm 0,0 UV-I 0 W/m 7,9 C 8,5 C 4,8 km/h (1 Bft) 93,62 %
04.04.2017 04:36 8,4 C 96 % 1019,5 hPa 0,0 l/m 3,1 km/h (1 Bft) NW 320 0 min 0,000 mm 0,0 UV-I 0 W/m 7,8 C 8,4 C 4,8 km/h (1 Bft) 97,37 %
04.04.2017 04:38 8,4 C 96 % 1019,5 hPa 0,0 l/m 1,9 km/h (1 Bft) NW 320 0 min 0,000 mm 0,0 UV-I 0 W/m 7,8 C 8,4 C 4,8 km/h (1 Bft) 94,34 %
04.04.2017 04:40 8,4 C 97 % 1019,5 hPa 0,0 l/m 0,1 km/h (0 Bft) NW 320 0 min 0,000 mm 0,0 UV-I 0 W/m 8,0 C 8,4 C 1,6 km/h (1 Bft) 98,00 %
04.04.2017 04:42 8,5 C 97 % 1019,6 hPa 0,0 l/m 0,0 km/h (0 Bft) NW 320 0 min 0,000 mm 0,0 UV-I 0 W/m 8,1 C 8,5 C 0,0 km/h (0 Bft) 95,74 %
04.04.2017 04:44 8,5 C 97 % 1019,6 hPa 0,0 l/m 0,0 km/h (0 Bft) NW 321 0 min 0,000 mm 0,0 UV-I 0 W/m 8,1 C 8,5 C 1,6 km/h (1 Bft) 97,37 %
04.04.2017 04:46 8,6 C 97 % 1019,7 hPa 0,0 l/m 0,3 km/h (0 Bft) NW 320 0 min 0,000 mm 0,0 UV-I 0 W/m 8,2 C 8,6 C 1,6 km/h (1 Bft) 94,34 %
04.04.2017 04:48 8,5 C 97 % 1019,6 hPa 0,0 l/m 0,2 km/h (0 Bft) NW 320 0 min 0,000 mm 0,0 UV-I 0 W/m 8,1 C 8,5 C 1,6 km/h (1 Bft) 94,74 %
04.04.2017 04:50 8,6 C 97 % 1019,6 hPa 0,0 l/m 0,1 km/h (0 Bft) NW 320 0 min 0,000 mm 0,0 UV-I 0 W/m 8,2 C 8,6 C 1,6 km/h (1 Bft) 95,74 %
04.04.2017 04:52 8,5 C 96 % 1019,6 hPa 0,0 l/m 0,0 km/h (0 Bft) NW 320 0 min 0,000 mm 0,0 UV-I 0 W/m 7,9 C 8,5 C 0,0 km/h (0 Bft) 96,23 %
04.04.2017 04:54 8,5 C 96 % 1019,6 hPa 0,0 l/m 0,0 km/h (0 Bft) NW 320 0 min 0,000 mm 0,0 UV-I 0 W/m 7,9 C 8,5 C 0,0 km/h (0 Bft) 94,00 %
04.04.2017 04:56 8,4 C 97 % 1019,6 hPa 0,0 l/m 0,0 km/h (0 Bft) NW 320 0 min 0,000 mm 0,0 UV-I 0 W/m 8,0 C 8,4 C 0,0 km/h (0 Bft) 100,00 %
04.04.2017 04:58 8,4 C 97 % 1019,7 hPa 0,0 l/m 0,0 km/h (0 Bft) NW 320 0 min 0,000 mm 0,0 UV-I 0 W/m 8,0 C 8,4 C 1,6 km/h (1 Bft) 93,62 %
04.04.2017 05:00 8,5 C 97 % 1019,6 hPa 0,0 l/m 0,1 km/h (0 Bft) NW 320 0 min 0,000 mm 0,0 UV-I 0 W/m 8,1 C 8,5 C 1,6 km/h (1 Bft) 98,00 %
04.04.2017 05:02 8,5 C 97 % 1019,6 hPa 0,2 l/m 0,0 km/h (0 Bft) NW 320 0 min 0,000 mm 0,0 UV-I 0 W/m 8,1 C 8,5 C 0,0 km/h (0 Bft) 96,00 %
04.04.2017 05:04 8,5 C 97 % 1019,6 hPa 0,0 l/m 0,0 km/h (0 Bft) NW 320 0 min 0,000 mm 0,0 UV-I 0 W/m 8,1 C 8,5 C 0,0 km/h (0 Bft) 97,87 %
04.04.2017 05:06 8,5 C 97 % 1019,6 hPa 0,0 l/m 0,0 km/h (0 Bft) NW 320 0 min 0,000 mm 0,0 UV-I 0 W/m 8,1 C 8,5 C 0,0 km/h (0 Bft) 100,00 %
04.04.2017 05:08 8,4 C 97 % 1019,6 hPa 0,0 l/m 0,0 km/h (0 Bft) NW 320 0 min 0,000 mm 0,0 UV-I 0 W/m 8,0 C 8,4 C 0,0 km/h (0 Bft) 97,37 %
04.04.2017 05:10 8,4 C 97 % 1019,6 hPa 0,0 l/m 0,1 km/h (0 Bft) NW 320 0 min 0,000 mm 0,0 UV-I 0 W/m 8,0 C 8,4 C 1,6 km/h (1 Bft) 97,87 %
04.04.2017 05:12 8,5 C 97 % 1019,6 hPa 0,0 l/m 0,2 km/h (0 Bft) NW 320 0 min 0,000 mm 0,0 UV-I 0 W/m 8,1 C 8,5 C 1,6 km/h (1 Bft) 97,87 %
04.04.2017 05:14 8,5 C 97 % 1019,6 hPa 0,0 l/m 0,1 km/h (0 Bft) NW 320 0 min 0,000 mm 0,0 UV-I 0 W/m 8,1 C 8,5 C 1,6 km/h (1 Bft) 98,00 %
04.04.2017 05:16 8,4 C 97 % 1019,6 hPa 0,0 l/m 0,6 km/h (0 Bft) NW 320 0 min 0,000 mm 0,0 UV-I 0 W/m 8,0 C 8,4 C 3,2 km/h (1 Bft) 96,00 %
04.04.2017 05:18 8,4 C 97 % 1019,6 hPa 0,0 l/m 0,2 km/h (0 Bft) NW 320 0 min 0,000 mm 0,0 UV-I 0 W/m 8,0 C 8,4 C 1,6 km/h (1 Bft) 100,00 %
04.04.2017 05:20 8,4 C 97 % 1019,7 hPa 0,0 l/m 0,4 km/h (0 Bft) NW 321 0 min 0,000 mm 0,0 UV-I 0 W/m 8,0 C 8,4 C 1,6 km/h (1 Bft) 96,00 %
04.04.2017 05:22 8,4 C 97 % 1019,6 hPa 0,0 l/m 0,0 km/h (0 Bft) NW 321 0 min 0,000 mm 0,0 UV-I 0 W/m 8,0 C 8,4 C 1,6 km/h (1 Bft) 98,00 %
04.04.2017 05:24 8,4 C 97 % 1019,7 hPa 0,0 l/m 0,3 km/h (0 Bft) NW 321 0 min 0,000 mm 0,0 UV-I 0 W/m 8,0 C 8,4 C 1,6 km/h (1 Bft) 100,00 %
04.04.2017 05:26 8,4 C 97 % 1019,7 hPa 0,0 l/m 0,0 km/h (0 Bft) NW 321 0 min 0,000 mm 0,0 UV-I 0 W/m 8,0 C 8,4 C 1,6 km/h (1 Bft) 97,37 %
04.04.2017 05:28 8,4 C 97 % 1019,7 hPa 0,0 l/m 0,0 km/h (0 Bft) NW 321 0 min 0,000 mm 0,0 UV-I 0 W/m 8,0 C 8,4 C 0,0 km/h (0 Bft) 98,00 %
04.04.2017 05:30 8,5 C 97 % 1019,7 hPa 0,0 l/m 0,0 km/h (0 Bft) NW 321 0 min 0,000 mm 0,0 UV-I 0 W/m 8,1 C 8,5 C 0,0 km/h (0 Bft) 100,00 %
04.04.2017 05:32 8,5 C 97 % 1019,7 hPa 0,2 l/m 0,0 km/h (0 Bft) NW 321 0 min 0,000 mm 0,0 UV-I 0 W/m 8,1 C 8,5 C 0,0 km/h (0 Bft) 97,87 %
04.04.2017 05:34 8,5 C 97 % 1019,7 hPa 0,0 l/m 0,9 km/h (0 Bft) NW 321 0 min 0,000 mm 0,0 UV-I 0 W/m 8,1 C 8,5 C 4,8 km/h (1 Bft) 100,00 %
04.04.2017 05:36 8,5 C 97 % 1019,7 hPa 0,0 l/m 1,5 km/h (1 Bft) NW 317 0 min 0,000 mm 0,0 UV-I 0 W/m 8,1 C 8,5 C 3,2 km/h (1 Bft) 98,39 %
04.04.2017 05:38 8,5 C 97 % 1019,7 hPa 0,0 l/m 0,0 km/h (0 Bft) NW 317 0 min 0,000 mm 0,0 UV-I 0 W/m 8,1 C 8,5 C 1,6 km/h (1 Bft) 98,00 %
04.04.2017 05:40 8,4 C 97 % 1019,6 hPa 0,0 l/m 0,4 km/h (0 Bft) NW 317 0 min 0,000 mm 0,0 UV-I 0 W/m 8,0 C 8,4 C 1,6 km/h (1 Bft) 100,00 %
04.04.2017 05:42 8,4 C 97 % 1019,6 hPa 0,0 l/m 0,0 km/h (0 Bft) NW 317 0 min 0,000 mm 0,0 UV-I 0 W/m 8,0 C 8,4 C 0,0 km/h (0 Bft) 97,87 %
04.04.2017 05:44 8,4 C 97 % 1019,6 hPa 0,0 l/m 0,0 km/h (0 Bft) NW 317 0 min 0,000 mm 0,0 UV-I 0 W/m 8,0 C 8,4 C 0,0 km/h (0 Bft) 98,00 %
04.04.2017 05:46 8,4 C 97 % 1019,6 hPa 0,0 l/m 0,0 km/h (0 Bft) NW 317 0 min 0,000 mm 0,0 UV-I 0 W/m 8,0 C 8,4 C 0,0 km/h (0 Bft) 94,00 %
04.04.2017 05:48 8,4 C 97 % 1019,6 hPa 0,0 l/m 0,0 km/h (0 Bft) NW 317 0 min 0,000 mm 0,0 UV-I 0 W/m 8,0 C 8,4 C 0,0 km/h (0 Bft) 97,87 %
04.04.2017 05:50 8,5 C 97 % 1019,6 hPa 0,0 l/m 0,3 km/h (0 Bft) NW 319 0 min 0,000 mm 0,0 UV-I 0 W/m 8,1 C 8,5 C 3,2 km/h (1 Bft) 92,11 %
04.04.2017 05:52 8,4 C 97 % 1019,6 hPa 0,0 l/m 1,2 km/h (1 Bft) NW 305 0 min 0,000 mm 0,0 UV-I 0 W/m 8,0 C 8,4 C 3,2 km/h (1 Bft) 98,21 %
04.04.2017 05:54 8,4 C 97 % 1019,6 hPa 0,0 l/m 0,6 km/h (0 Bft) NW 306 0 min 0,000 mm 0,0 UV-I 0 W/m 8,0 C 8,4 C 3,2 km/h (1 Bft) 94,00 %
04.04.2017 05:56 8,4 C 97 % 1019,6 hPa 0,0 l/m 0,7 km/h (0 Bft) NW 311 0 min 0,000 mm 0,0 UV-I 0 W/m 8,0 C 8,4 C 3,2 km/h (1 Bft) 97,87 %
04.04.2017 05:58 8,4 C 97 % 1019,6 hPa 0,0 l/m 0,6 km/h (0 Bft) NW 314 0 min 0,000 mm 0,0 UV-I 0 W/m 8,0 C 8,4 C 3,2 km/h (1 Bft) 92,11 %
04.04.2017 06:00 8,4 C 97 % 1019,6 hPa 0,0 l/m 0,0 km/h (0 Bft) NW 314 0 min 0,000 mm 0,0 UV-I 0 W/m 8,0 C 8,4 C 1,6 km/h (1 Bft) 95,74 %
04.04.2017 06:02 8,4 C 97 % 1019,6 hPa 0,0 l/m 1,0 km/h (0 Bft) NW 319 0 min 0,000 mm 0,0 UV-I 0 W/m 8,0 C 8,4 C 3,2 km/h (1 Bft) 96,00 %
04.04.2017 06:04 8,4 C 97 % 1019,7 hPa 0,0 l/m 0,0 km/h (0 Bft) NW 319 0 min 0,000 mm 0,0 UV-I 0 W/m 8,0 C 8,4 C 0,0 km/h (0 Bft) 95,74 %
04.04.2017 06:06 8,4 C 97 % 1019,7 hPa 0,0 l/m 0,4 km/h (0 Bft) NW 319 0 min 0,000 mm 0,0 UV-I 0 W/m 8,0 C 8,4 C 1,6 km/h (1 Bft) 98,11 %
04.04.2017 06:08 8,4 C 97 % 1019,7 hPa 0,2 l/m 0,0 km/h (0 Bft) NW 319 0 min 0,000 mm 0,0 UV-I 0 W/m 8,0 C 8,4 C 0,0 km/h (0 Bft) 95,12 %
04.04.2017 06:10 8,4 C 97 % 1019,7 hPa 0,0 l/m 0,2 km/h (0 Bft) NW 321 0 min 0,000 mm 0,0 UV-I 0 W/m 8,0 C 8,4 C 1,6 km/h (1 Bft) 97,87 %
04.04.2017 06:12 8,4 C 97 % 1019,7 hPa 0,0 l/m 0,2 km/h (0 Bft) NW 321 0 min 0,000 mm 0,0 UV-I 0 W/m 8,0 C 8,4 C 1,6 km/h (1 Bft) 98,00 %
04.04.2017 06:14 8,4 C 97 % 1019,7 hPa 0,0 l/m 0,0 km/h (0 Bft) NW 321 0 min 0,000 mm 0,0 UV-I 0 W/m 8,0 C 8,4 C 0,0 km/h (0 Bft) 97,44 %
04.04.2017 06:16 8,4 C 97 % 1019,7 hPa 0,0 l/m 0,1 km/h (0 Bft) NW 321 0 min 0,000 mm 0,0 UV-I 0 W/m 8,0 C 8,4 C 1,6 km/h (1 Bft) 94,55 %
04.04.2017 06:18 8,4 C 97 % 1019,7 hPa 0,0 l/m 0,0 km/h (0 Bft) NW 321 0 min 0,000 mm 0,0 UV-I 0 W/m 8,0 C 8,4 C 0,0 km/h (0 Bft) 97,44 %
04.04.2017 06:20 8,4 C 97 % 1019,7 hPa 0,0 l/m 0,1 km/h (0 Bft) NW 321 0 min 0,000 mm 0,0 UV-I 0 W/m 8,0 C 8,4 C 1,6 km/h (1 Bft) 94,64 %
04.04.2017 06:22 8,4 C 97 % 1019,7 hPa 0,0 l/m 0,0 km/h (0 Bft) NW 321 0 min 0,000 mm 0,0 UV-I 0 W/m 8,0 C 8,4 C 0,0 km/h (0 Bft) 97,87 %
04.04.2017 06:24 8,4 C 97 % 1019,7 hPa 0,0 l/m 0,0 km/h (0 Bft) NW 321 0 min 0,000 mm 0,0 UV-I 0 W/m 8,0 C 8,4 C 0,0 km/h (0 Bft) 95,74 %
04.04.2017 06:26 8,4 C 97 % 1019,7 hPa 0,0 l/m 0,9 km/h (0 Bft) NW 321 0 min 0,000 mm 0,0 UV-I 0 W/m 8,0 C 8,4 C 3,2 km/h (1 Bft) 95,74 %
04.04.2017 06:28 8,4 C 97 % 1019,6 hPa 0,0 l/m 0,3 km/h (0 Bft) NW 321 0 min 0,000 mm 0,0 UV-I 0 W/m 8,0 C 8,4 C 1,6 km/h (1 Bft) 92,11 %
04.04.2017 06:30 8,4 C 97 % 1019,7 hPa 0,0 l/m 0,0 km/h (0 Bft) NW 321 0 min 0,000 mm 0,0 UV-I 0 W/m 8,0 C 8,4 C 0,0 km/h (0 Bft) 97,87 %
04.04.2017 06:32 8,4 C 97 % 1019,7 hPa 0,0 l/m 0,1 km/h (0 Bft) NW 321 0 min 0,000 mm 0,0 UV-I 0 W/m 8,0 C 8,4 C 1,6 km/h (1 Bft) 90,57 %
04.04.2017 06:34 8,4 C 97 % 1019,8 hPa 0,0 l/m 0,0 km/h (0 Bft) NW 321 0 min 0,000 mm 0,0 UV-I 0 W/m 8,0 C 8,4 C 0,0 km/h (0 Bft) 94,44 %
04.04.2017 06:36 8,4 C 97 % 1019,8 hPa 0,0 l/m 0,0 km/h (0 Bft) NW 321 0 min 0,000 mm 0,0 UV-I 0 W/m 8,0 C 8,4 C 1,6 km/h (1 Bft) 94,34 %
04.04.2017 06:38 8,4 C 97 % 1019,8 hPa 0,0 l/m 0,2 km/h (0 Bft) NW 321 0 min 0,000 mm 0,0 UV-I 0 W/m 8,0 C 8,4 C 1,6 km/h (1 Bft) 91,49 %
04.04.2017 06:40 8,4 C 97 % 1019,8 hPa 0,0 l/m 0,5 km/h (0 Bft) NW 321 0 min 0,000 mm 0,0 UV-I 0 W/m 8,0 C 8,4 C 3,2 km/h (1 Bft) 90,00 %
04.04.2017 06:42 8,4 C 97 % 1019,8 hPa 0,0 l/m 0,1 km/h (0 Bft) NW 321 0 min 0,000 mm 0,0 UV-I 0 W/m 8,0 C 8,4 C 1,6 km/h (1 Bft) 93,18 %
04.04.2017 06:44 8,4 C 97 % 1019,8 hPa 0,0 l/m 0,1 km/h (0 Bft) NW 321 0 min 0,000 mm 0,0 UV-I 1 W/m 8,0 C 8,4 C 1,6 km/h (1 Bft) 93,62 %
04.04.2017 06:46 8,4 C 97 % 1019,8 hPa 0,0 l/m 0,0 km/h (0 Bft) NW 321 0 min 0,000 mm 0,0 UV-I 5 W/m 8,0 C 8,4 C 1,6 km/h (1 Bft) 92,00 %
04.04.2017 06:48 8,4 C 97 % 1019,8 hPa 0,0 l/m 0,3 km/h (0 Bft) NW 321 0 min 0,000 mm 0,0 UV-I 5 W/m 8,0 C 8,4 C 1,6 km/h (1 Bft) 96,00 %
04.04.2017 06:50 8,4 C 97 % 1019,8 hPa 0,0 l/m 0,1 km/h (0 Bft) NW 321 0 min 0,000 mm 0,0 UV-I 6 W/m 8,0 C 8,4 C 1,6 km/h (1 Bft) 91,49 %
04.04.2017 06:52 8,4 C 97 % 1019,8 hPa 0,0 l/m 0,1 km/h (0 Bft) NW 321 0 min 0,000 mm 0,0 UV-I 7 W/m 8,0 C 8,4 C 1,6 km/h (1 Bft) 91,30 %
04.04.2017 06:54 8,4 C 97 % 1019,8 hPa 0,0 l/m 0,2 km/h (0 Bft) NW 321 0 min 0,000 mm 0,0 UV-I 7 W/m 8,0 C 8,4 C 1,6 km/h (1 Bft) 91,18 %
04.04.2017 06:56 8,4 C 97 % 1019,9 hPa 0,0 l/m 0,0 km/h (0 Bft) NW 321 0 min 0,000 mm 0,0 UV-I 7 W/m 8,0 C 8,4 C 1,6 km/h (1 Bft) 95,12 %
04.04.2017 06:58 8,4 C 97 % 1019,9 hPa 0,0 l/m 0,1 km/h (0 Bft) NW 321 0 min 0,000 mm 0,0 UV-I 7 W/m 8,0 C 8,4 C 1,6 km/h (1 Bft) 94,00 %
04.04.2017 07:00 8,4 C 97 % 1020,0 hPa 0,0 l/m 1,1 km/h (1 Bft) NW 321 0 min 0,000 mm 0,0 UV-I 7 W/m 8,0 C 8,4 C 3,2 km/h (1 Bft) 97,56 %
04.04.2017 07:02 8,4 C 97 % 1019,9 hPa 0,0 l/m 0,2 km/h (0 Bft) NW 321 0 min 0,000 mm 0,0 UV-I 7 W/m 8,0 C 8,4 C 1,6 km/h (1 Bft) 91,49 %
04.04.2017 07:04 8,4 C 97 % 1020,0 hPa 0,0 l/m 0,3 km/h (0 Bft) NW 321 0 min 0,000 mm 0,0 UV-I 7 W/m 8,0 C 8,4 C 1,6 km/h (1 Bft) 98,00 %
04.04.2017 07:06 8,3 C 97 % 1020,0 hPa 0,0 l/m 0,6 km/h (0 Bft) NW 321 0 min 0,000 mm 0,0 UV-I 7 W/m 7,9 C 8,3 C 1,6 km/h (1 Bft) 96,00 %
04.04.2017 07:08 8,3 C 97 % 1020,0 hPa 0,0 l/m 0,4 km/h (0 Bft) NW 321 0 min 0,000 mm 0,0 UV-I 7 W/m 7,9 C 8,3 C 1,6 km/h (1 Bft) 92,68 %
04.04.2017 07:10 8,3 C 97 % 1020,0 hPa 0,0 l/m 0,4 km/h (0 Bft) NW 321 0 min 0,000 mm 0,0 UV-I 7 W/m 7,9 C 8,3 C 1,6 km/h (1 Bft) 100,00 %
04.04.2017 07:12 8,3 C 97 % 1020,0 hPa 0,0 l/m 0,0 km/h (0 Bft) NW 321 0 min 0,000 mm 0,0 UV-I 5 W/m 7,9 C 8,3 C 0,0 km/h (0 Bft) 97,62 %
04.04.2017 07:14 8,3 C 97 % 1020,1 hPa 0,0 l/m 0,1 km/h (0 Bft) NW 321 0 min 0,000 mm 0,0 UV-I 6 W/m 7,9 C 8,3 C 1,6 km/h (1 Bft) 94,83 %
04.04.2017 07:16 8,3 C 97 % 1020,1 hPa 0,0 l/m 0,0 km/h (0 Bft) NW 321 0 min 0,000 mm 0,0 UV-I 7 W/m 7,9 C 8,3 C 0,0 km/h (0 Bft) 96,00 %
04.04.2017 07:18 8,3 C 97 % 1020,2 hPa 0,0 l/m 0,7 km/h (0 Bft) NW 321 0 min 0,000 mm 0,0 UV-I 7 W/m 7,9 C 8,3 C 1,6 km/h (1 Bft) 97,22 %
04.04.2017 07:20 8,4 C 97 % 1020,2 hPa 0,0 l/m 0,2 km/h (0 Bft) NW 321 0 min 0,000 mm 0,0 UV-I 7 W/m 8,0 C 8,4 C 1,6 km/h (1 Bft) 96,23 %
04.04.2017 07:22 8,4 C 97 % 1020,3 hPa 0,0 l/m 0,5 km/h (0 Bft) NW 321 0 min 0,000 mm 0,0 UV-I 7 W/m 8,0 C 8,4 C 1,6 km/h (1 Bft) 100,00 %
04.04.2017 07:24 8,3 C 97 % 1020,2 hPa 0,0 l/m 0,0 km/h (0 Bft) NW 321 0 min 0,000 mm 0,0 UV-I 7 W/m 7,9 C 8,3 C 0,0 km/h (0 Bft) 98,00 %
04.04.2017 07:26 8,3 C 97 % 1020,3 hPa 0,0 l/m 0,7 km/h (0 Bft) NW 321 0 min 0,000 mm 0,0 UV-I 8 W/m 7,9 C 8,3 C 1,6 km/h (1 Bft) 95,12 %
04.04.2017 07:28 8,3 C 97 % 1020,3 hPa 0,0 l/m 0,4 km/h (0 Bft) NW 321 0 min 0,000 mm 0,0 UV-I 9 W/m 7,9 C 8,3 C 1,6 km/h (1 Bft) 96,00 %
04.04.2017 07:30 8,3 C 97 % 1020,3 hPa 0,0 l/m 0,0 km/h (0 Bft) NW 321 0 min 0,000 mm 0,0 UV-I 7 W/m 7,9 C 8,3 C 0,0 km/h (0 Bft) 92,11 %
04.04.2017 07:32 8,3 C 97 % 1020,3 hPa 0,0 l/m 0,0 km/h (0 Bft) NW 321 0 min 0,000 mm 0,0 UV-I 7 W/m 7,9 C 8,3 C 1,6 km/h (1 Bft) 98,11 %
04.04.2017 07:34 8,3 C 97 % 1020,4 hPa 0,2 l/m 0,0 km/h (0 Bft) NW 321 0 min 0,000 mm 0,0 UV-I 9 W/m 7,9 C 8,3 C 0,0 km/h (0 Bft) 97,87 %
04.04.2017 07:36 8,3 C 97 % 1020,4 hPa 0,0 l/m 0,0 km/h (0 Bft) NW 321 0 min 0,000 mm 0,0 UV-I 11 W/m 7,9 C 8,3 C 0,0 km/h (0 Bft) 98,00 %
04.04.2017 07:38 8,3 C 97 % 1020,3 hPa 0,0 l/m 0,0 km/h (0 Bft) NW 321 0 min 0,000 mm 0,0 UV-I 12 W/m 7,9 C 8,3 C 0,0 km/h (0 Bft) 100,00 %
04.04.2017 07:40 8,3 C 97 % 1020,3 hPa 0,2 l/m 0,0 km/h (0 Bft) NW 321 0 min 0,000 mm 0,0 UV-I 12 W/m 7,9 C 8,3 C 0,0 km/h (0 Bft) 97,87 %
04.04.2017 07:42 8,3 C 97 % 1020,3 hPa 0,0 l/m 0,0 km/h (0 Bft) NW 321 0 min 0,000 mm 0,0 UV-I 13 W/m 7,9 C 8,3 C 0,0 km/h (0 Bft) 92,86 %
04.04.2017 07:44 8,3 C 97 % 1020,3 hPa 0,0 l/m 0,0 km/h (0 Bft) NW 321 0 min 0,000 mm 0,0 UV-I 14 W/m 7,9 C 8,3 C 0,0 km/h (0 Bft) 97,87 %
04.04.2017 07:46 8,3 C 97 % 1020,4 hPa 0,0 l/m 0,0 km/h (0 Bft) NW 321 0 min 0,000 mm 0,0 UV-I 14 W/m 7,9 C 8,3 C 0,0 km/h (0 Bft) 97,56 %
04.04.2017 07:48 8,3 C 97 % 1020,4 hPa 0,0 l/m 0,0 km/h (0 Bft) NW 321 0 min 0,000 mm 0,0 UV-I 14 W/m 7,9 C 8,3 C 0,0 km/h (0 Bft) 97,44 %
04.04.2017 07:50 8,3 C 97 % 1020,3 hPa 0,0 l/m 0,0 km/h (0 Bft) NW 321 0 min 0,000 mm 0,0 UV-I 19 W/m 7,9 C 8,3 C 0,0 km/h (0 Bft) 96,15 %
04.04.2017 07:52 8,3 C 97 % 1020,4 hPa 0,0 l/m 0,0 km/h (0 Bft) NW 321 0 min 0,000 mm 0,0 UV-I 26 W/m 7,9 C 8,3 C 0,0 km/h (0 Bft) 95,83 %
04.04.2017 07:54 8,3 C 97 % 1020,4 hPa 0,0 l/m 0,0 km/h (0 Bft) NW 321 0 min 0,000 mm 0,0 UV-I 31 W/m 7,9 C 8,3 C 0,0 km/h (0 Bft) 100,00 %
04.04.2017 07:56 8,4 C 97 % 1020,4 hPa 0,0 l/m 0,0 km/h (0 Bft) NW 321 0 min 0,000 mm 0,0 UV-I 32 W/m 8,0 C 8,4 C 0,0 km/h (0 Bft) 100,00 %
04.04.2017 07:58 8,4 C 97 % 1020,4 hPa 0,0 l/m 0,0 km/h (0 Bft) NW 321 0 min 0,000 mm 0,0 UV-I 28 W/m 8,0 C 8,4 C 0,0 km/h (0 Bft) 97,87 %
04.04.2017 08:00 8,4 C 97 % 1020,4 hPa 0,0 l/m 0,0 km/h (0 Bft) NW 321 0 min 0,000 mm 0,0 UV-I 25 W/m 8,0 C 8,4 C 0,0 km/h (0 Bft) 94,00 %
04.04.2017 08:02 8,4 C 97 % 1020,4 hPa 0,0 l/m 1,3 km/h (1 Bft) NW 321 0 min 0,000 mm 0,0 UV-I 26 W/m 8,0 C 8,4 C 3,2 km/h (1 Bft) 100,00 %
04.04.2017 08:04 8,3 C 97 % 1020,4 hPa 0,0 l/m 0,1 km/h (0 Bft) NW 321 0 min 0,000 mm 0,0 UV-I 23 W/m 7,9 C 8,3 C 1,6 km/h (1 Bft) 100,00 %
04.04.2017 08:06 8,3 C 97 % 1020,4 hPa 0,0 l/m 0,0 km/h (0 Bft) NW 321 0 min 0,000 mm 0,0 UV-I 25 W/m 7,9 C 8,3 C 0,0 km/h (0 Bft) 100,00 %
04.04.2017 08:08 8,3 C 97 % 1020,4 hPa 0,0 l/m 2,0 km/h (1 Bft) NW 322 0 min 0,000 mm 0,0 UV-I 32 W/m 7,9 C 8,3 C 4,8 km/h (1 Bft) 100,00 %
04.04.2017 08:10 8,4 C 97 % 1020,4 hPa 0,0 l/m 2,7 km/h (1 Bft) NW 324 0 min 0,000 mm 0,0 UV-I 43 W/m 8,0 C 8,4 C 4,8 km/h (1 Bft) 100,00 %
04.04.2017 08:12 8,4 C 97 % 1020,4 hPa 0,0 l/m 3,3 km/h (1 Bft) N 351 0 min 0,000 mm 0,0 UV-I 60 W/m 8,0 C 8,4 C 4,8 km/h (1 Bft) 100,00 %
04.04.2017 08:14 8,4 C 97 % 1020,4 hPa 0,0 l/m 2,1 km/h (1 Bft) N 351 0 min 0,000 mm 0,0 UV-I 73 W/m 8,0 C 8,4 C 3,2 km/h (1 Bft) 100,00 %
04.04.2017 08:16 8,4 C 97 % 1020,4 hPa 0,0 l/m 1,7 km/h (1 Bft) N 351 0 min 0,000 mm 0,0 UV-I 77 W/m 8,0 C 8,4 C 3,2 km/h (1 Bft) 98,11 %
04.04.2017 08:18 8,5 C 97 % 1020,4 hPa 0,0 l/m 2,6 km/h (1 Bft) N 355 0 min 0,000 mm 0,0 UV-I 80 W/m 8,1 C 8,5 C 4,8 km/h (1 Bft) 96,00 %
04.04.2017 08:20 8,6 C 97 % 1020,4 hPa 0,0 l/m 2,1 km/h (1 Bft) N 5 0 min 0,000 mm 0,0 UV-I 90 W/m 8,2 C 8,6 C 4,8 km/h (1 Bft) 97,14 %
04.04.2017 08:22 8,6 C 97 % 1020,4 hPa 0,0 l/m 4,2 km/h (1 Bft) NO 53 0 min 0,000 mm 0,0 UV-I 101 W/m 8,2 C 8,6 C 6,4 km/h (2 Bft) 98,21 %
04.04.2017 08:24 8,7 C 97 % 1020,4 hPa 0,0 l/m 2,9 km/h (1 Bft) NO 53 0 min 0,000 mm 0,0 UV-I 112 W/m 8,3 C 8,7 C 4,8 km/h (1 Bft) 100,00 %
04.04.2017 08:26 8,7 C 97 % 1020,4 hPa 0,0 l/m 3,0 km/h (1 Bft) NO 53 0 min 0,000 mm 0,0 UV-I 120 W/m 8,3 C 8,7 C 4,8 km/h (1 Bft) 98,21 %
04.04.2017 08:28 8,7 C 97 % 1020,4 hPa 0,0 l/m 2,6 km/h (1 Bft) NO 44 0 min 0,000 mm 0,0 UV-I 120 W/m 8,3 C 8,7 C 4,8 km/h (1 Bft) 98,00 %
04.04.2017 08:30 8,8 C 97 % 1020,4 hPa 0,0 l/m 2,3 km/h (1 Bft) NO 37 0 min 0,000 mm 0,0 UV-I 118 W/m 8,4 C 8,8 C 4,8 km/h (1 Bft) 97,22 %
04.04.2017 08:32 8,8 C 97 % 1020,4 hPa 0,0 l/m 1,8 km/h (1 Bft) N-NO 30 0 min 0,000 mm 0,0 UV-I 114 W/m 8,4 C 8,8 C 4,8 km/h (1 Bft) 96,00 %
04.04.2017 08:34 8,8 C 96 % 1020,4 hPa 0,0 l/m 1,3 km/h (1 Bft) N-NO 30 0 min 0,000 mm 0,0 UV-I 109 W/m 8,2 C 8,8 C 4,8 km/h (1 Bft) 96,15 %
04.04.2017 08:36 8,8 C 96 % 1020,4 hPa 0,0 l/m 1,0 km/h (0 Bft) N-NO 30 0 min 0,000 mm 0,0 UV-I 100 W/m 8,2 C 8,8 C 3,2 km/h (1 Bft) 95,56 %
04.04.2017 08:38 8,9 C 96 % 1020,4 hPa 0,0 l/m 2,2 km/h (1 Bft) N-NO 30 0 min 0,000 mm 0,0 UV-I 89 W/m 8,3 C 8,9 C 3,2 km/h (1 Bft) 97,87 %
04.04.2017 08:40 8,9 C 96 % 1020,4 hPa 0,0 l/m 2,1 km/h (1 Bft) N-NO 30 0 min 0,000 mm 0,0 UV-I 83 W/m 8,3 C 8,9 C 4,8 km/h (1 Bft) 94,34 %
04.04.2017 08:42 8,9 C 96 % 1020,4 hPa 0,0 l/m 2,3 km/h (1 Bft) N-NO 30 0 min 0,000 mm 0,0 UV-I 88 W/m 8,3 C 8,9 C 4,8 km/h (1 Bft) 100,00 %
04.04.2017 08:44 8,9 C 96 % 1020,4 hPa 0,0 l/m 0,0 km/h (0 Bft) N-NO 30 0 min 0,000 mm 0,0 UV-I 96 W/m 8,3 C 8,9 C 1,6 km/h (1 Bft) 93,88 %
04.04.2017 08:46 8,9 C 96 % 1020,5 hPa 0,0 l/m 0,2 km/h (0 Bft) N-NO 30 0 min 0,000 mm 0,0 UV-I 85 W/m 8,3 C 8,9 C 1,6 km/h (1 Bft) 96,23 %
04.04.2017 08:48 8,9 C 96 % 1020,5 hPa 0,0 l/m 0,7 km/h (0 Bft) N-NO 30 0 min 0,000 mm 0,0 UV-I 70 W/m 8,3 C 8,9 C 3,2 km/h (1 Bft) 97,87 %
04.04.2017 08:50 8,9 C 96 % 1020,5 hPa 0,0 l/m 0,2 km/h (0 Bft) N-NO 30 0 min 0,000 mm 0,0 UV-I 61 W/m 8,3 C 8,9 C 1,6 km/h (1 Bft) 95,74 %
04.04.2017 08:52 8,9 C 96 % 1020,5 hPa 0,0 l/m 0,1 km/h (0 Bft) N-NO 30 0 min 0,000 mm 0,0 UV-I 58 W/m 8,3 C 8,9 C 1,6 km/h (1 Bft) 97,87 %
04.04.2017 08:54 8,9 C 96 % 1020,5 hPa 0,0 l/m 0,4 km/h (0 Bft) N-NO 30 0 min 0,000 mm 0,0 UV-I 61 W/m 8,3 C 8,9 C 1,6 km/h (1 Bft) 96,00 %
04.04.2017 08:56 8,9 C 96 % 1020,5 hPa 0,0 l/m 0,0 km/h (0 Bft) N-NO 30 0 min 0,000 mm 0,0 UV-I 60 W/m 8,3 C 8,9 C 0,0 km/h (0 Bft) 97,37 %
04.04.2017 08:58 8,9 C 96 % 1020,6 hPa 0,0 l/m 0,4 km/h (0 Bft) N-NO 27 0 min 0,000 mm 0,0 UV-I 57 W/m 8,3 C 8,9 C 1,6 km/h (1 Bft) 92,00 %
04.04.2017 09:00 8,9 C 96 % 1020,6 hPa 0,0 l/m 1,0 km/h (0 Bft) N-NW 342 0 min 0,025 mm 0,0 UV-I 57 W/m 8,3 C 8,9 C 3,2 km/h (1 Bft) 94,74 %
04.04.2017 09:02 8,8 C 96 % 1020,6 hPa 0,0 l/m 1,1 km/h (1 Bft) N-NW 341 0 min 0,000 mm 0,0 UV-I 54 W/m 8,2 C 8,8 C 3,2 km/h (1 Bft) 92,45 %
04.04.2017 09:04 8,8 C 96 % 1020,6 hPa 0,0 l/m 0,1 km/h (0 Bft) N-NW 341 0 min 0,000 mm 0,0 UV-I 49 W/m 8,2 C 8,8 C 1,6 km/h (1 Bft) 96,00 %
04.04.2017 09:06 8,8 C 96 % 1020,5 hPa 0,0 l/m 0,8 km/h (0 Bft) N-NW 341 0 min 0,000 mm 0,0 UV-I 44 W/m 8,2 C 8,8 C 3,2 km/h (1 Bft) 95,45 %
04.04.2017 09:08 8,7 C 95 % 1020,6 hPa 0,0 l/m 2,1 km/h (1 Bft) N 10 0 min 0,000 mm 0,0 UV-I 41 W/m 7,9 C 8,7 C 8,0 km/h (2 Bft) 98,11 %
04.04.2017 09:10 8,7 C 95 % 1020,5 hPa 0,0 l/m 0,6 km/h (0 Bft) N 355 0 min 0,000 mm 0,0 UV-I 38 W/m 7,9 C 8,7 C 1,6 km/h (1 Bft) 100,00 %
04.04.2017 09:12 8,7 C 96 % 1020,5 hPa 0,0 l/m 0,0 km/h (0 Bft) N 355 0 min 0,000 mm 0,0 UV-I 34 W/m 8,1 C 8,7 C 1,6 km/h (1 Bft) 97,22 %
04.04.2017 09:14 8,7 C 96 % 1020,5 hPa 0,0 l/m 0,2 km/h (0 Bft) N 355 0 min 0,000 mm 0,0 UV-I 32 W/m 8,1 C 8,7 C 1,6 km/h (1 Bft) 100,00 %
04.04.2017 09:16 8,6 C 96 % 1020,6 hPa 0,0 l/m 0,0 km/h (0 Bft) N 355 0 min 0,000 mm 0,0 UV-I 32 W/m 8,0 C 8,6 C 1,6 km/h (1 Bft) 100,00 %
04.04.2017 09:18 8,7 C 96 % 1020,6 hPa 0,0 l/m 0,0 km/h (0 Bft) N 355 0 min 0,000 mm 0,0 UV-I 33 W/m 8,1 C 8,7 C 1,6 km/h (1 Bft) 98,00 %
04.04.2017 09:20 8,6 C 96 % 1020,6 hPa 0,0 l/m 0,1 km/h (0 Bft) N 355 0 min 0,000 mm 0,0 UV-I 33 W/m 8,0 C 8,6 C 1,6 km/h (1 Bft) 97,37 %
04.04.2017 09:22 8,6 C 96 % 1020,6 hPa 0,0 l/m 0,2 km/h (0 Bft) N 355 0 min 0,000 mm 0,0 UV-I 33 W/m 8,0 C 8,6 C 1,6 km/h (1 Bft) 100,00 %
04.04.2017 09:24 8,6 C 96 % 1020,6 hPa 0,0 l/m 0,3 km/h (0 Bft) N 355 0 min 0,000 mm 0,0 UV-I 37 W/m 8,0 C 8,6 C 3,2 km/h (1 Bft) 97,56 %
04.04.2017 09:26 8,6 C 96 % 1020,7 hPa 0,0 l/m 0,0 km/h (0 Bft) N 355 0 min 0,000 mm 0,0 UV-I 37 W/m 8,0 C 8,6 C 0,0 km/h (0 Bft) 98,11 %
04.04.2017 09:28 8,6 C 96 % 1020,7 hPa 0,0 l/m 0,0 km/h (0 Bft) N 355 0 min 0,000 mm 0,0 UV-I 35 W/m 8,0 C 8,6 C 0,0 km/h (0 Bft) 97,37 %
04.04.2017 09:30 8,6 C 96 % 1020,6 hPa 0,0 l/m 0,1 km/h (0 Bft) N 355 0 min 0,000 mm 0,0 UV-I 32 W/m 8,0 C 8,6 C 1,6 km/h (1 Bft) 98,00 %
04.04.2017 09:32 8,6 C 96 % 1020,6 hPa 0,0 l/m 0,0 km/h (0 Bft) N 355 0 min 0,000 mm 0,0 UV-I 31 W/m 8,0 C 8,6 C 0,0 km/h (0 Bft) 97,56 %
04.04.2017 09:34 8,7 C 96 % 1020,6 hPa 0,0 l/m 0,1 km/h (0 Bft) N 355 0 min 0,000 mm 0,0 UV-I 30 W/m 8,1 C 8,7 C 1,6 km/h (1 Bft) 98,00 %
04.04.2017 09:36 8,6 C 96 % 1020,6 hPa 0,0 l/m 0,0 km/h (0 Bft) N 355 0 min 0,000 mm 0,0 UV-I 31 W/m 8,0 C 8,6 C 0,0 km/h (0 Bft) 100,00 %
04.04.2017 09:38 8,6 C 96 % 1020,6 hPa 0,0 l/m 0,0 km/h (0 Bft) N 355 0 min 0,000 mm 0,0 UV-I 32 W/m 8,0 C 8,6 C 1,6 km/h (1 Bft) 95,12 %
04.04.2017 09:40 8,6 C 96 % 1020,6 hPa 0,0 l/m 0,0 km/h (0 Bft) N 355 0 min 0,000 mm 0,0 UV-I 33 W/m 8,0 C 8,6 C 1,6 km/h (1 Bft) 98,00 %
04.04.2017 09:42 8,6 C 96 % 1020,6 hPa 0,0 l/m 0,3 km/h (0 Bft) N 355 0 min 0,000 mm 0,0 UV-I 34 W/m 8,0 C 8,6 C 1,6 km/h (1 Bft) 91,49 %
04.04.2017 09:44 8,7 C 96 % 1020,7 hPa 0,0 l/m 0,3 km/h (0 Bft) N 355 0 min 0,000 mm 0,0 UV-I 35 W/m 8,1 C 8,7 C 1,6 km/h (1 Bft) 96,00 %
04.04.2017 09:46 8,7 C 96 % 1020,7 hPa 0,0 l/m 0,1 km/h (0 Bft) N 355 0 min 0,000 mm 0,0 UV-I 39 W/m 8,1 C 8,7 C 1,6 km/h (1 Bft) 94,74 %
04.04.2017 09:48 8,6 C 96 % 1020,7 hPa 0,0 l/m 0,0 km/h (0 Bft) N 355 0 min 0,000 mm 0,0 UV-I 40 W/m 8,0 C 8,6 C 0,0 km/h (0 Bft) 96,00 %
04.04.2017 09:50 8,6 C 96 % 1020,7 hPa 0,0 l/m 0,0 km/h (0 Bft) N 355 0 min 0,000 mm 0,0 UV-I 42 W/m 8,0 C 8,6 C 0,0 km/h (0 Bft) 97,78 %
04.04.2017 09:52 8,6 C 96 % 1020,7 hPa 0,0 l/m 0,0 km/h (0 Bft) N 355 0 min 0,000 mm 0,0 UV-I 48 W/m 8,0 C 8,6 C 0,0 km/h (0 Bft) 93,88 %
04.04.2017 09:54 8,6 C 96 % 1020,7 hPa 0,0 l/m 0,0 km/h (0 Bft) N 355 0 min 0,000 mm 0,0 UV-I 55 W/m 8,0 C 8,6 C 0,0 km/h (0 Bft) 98,00 %
04.04.2017 09:56 8,7 C 96 % 1020,7 hPa 0,0 l/m 1,5 km/h (1 Bft) N-NO 22 0 min 0,000 mm 0,0 UV-I 67 W/m 8,1 C 8,7 C 3,2 km/h (1 Bft) 96,00 %
04.04.2017 09:58 8,7 C 96 % 1020,7 hPa 0,0 l/m 1,9 km/h (1 Bft) N-NO 22 0 min 0,000 mm 0,0 UV-I 84 W/m 8,1 C 8,7 C 3,2 km/h (1 Bft) 93,62 %
04.04.2017 10:00 8,7 C 96 % 1020,7 hPa 0,0 l/m 2,4 km/h (1 Bft) NO 53 0 min 0,026 mm 0,2 UV-I 104 W/m 8,1 C 8,7 C 3,2 km/h (1 Bft) 92,11 %
04.04.2017 10:02 8,8 C 96 % 1020,7 hPa 0,0 l/m 0,6 km/h (0 Bft) NO 55 0 min 0,000 mm 0,5 UV-I 131 W/m 8,2 C 8,8 C 3,2 km/h (1 Bft) 97,87 %
04.04.2017 10:04 8,8 C 96 % 1020,7 hPa 0,0 l/m 0,6 km/h (0 Bft) NO 55 0 min 0,000 mm 0,6 UV-I 160 W/m 8,2 C 8,8 C 3,2 km/h (1 Bft) 96,23 %
04.04.2017 10:06 8,8 C 96 % 1020,7 hPa 0,0 l/m 0,1 km/h (0 Bft) NO 55 0 min 0,000 mm 0,6 UV-I 162 W/m 8,2 C 8,8 C 1,6 km/h (1 Bft) 97,87 %
04.04.2017 10:08 8,8 C 96 % 1020,7 hPa 0,0 l/m 0,1 km/h (0 Bft) NO 55 0 min 0,000 mm 0,5 UV-I 150 W/m 8,2 C 8,8 C 1,6 km/h (1 Bft) 97,56 %
04.04.2017 10:10 8,8 C 96 % 1020,7 hPa 0,0 l/m 0,0 km/h (0 Bft) NO 55 0 min 0,000 mm 0,5 UV-I 126 W/m 8,2 C 8,8 C 0,0 km/h (0 Bft) 98,00 %
04.04.2017 10:12 8,9 C 95 % 1020,7 hPa 0,0 l/m 1,1 km/h (1 Bft) NO 55 0 min 0,000 mm 0,5 UV-I 122 W/m 8,1 C 8,9 C 3,2 km/h (1 Bft) 94,12 %
04.04.2017 10:14 9,0 C 95 % 1020,7 hPa 0,0 l/m 2,1 km/h (1 Bft) NO 55 0 min 0,000 mm 0,5 UV-I 123 W/m 8,2 C 9,0 C 4,8 km/h (1 Bft) 95,74 %
04.04.2017 10:16 9,1 C 95 % 1020,7 hPa 0,0 l/m 0,1 km/h (0 Bft) NO 55 0 min 0,000 mm 0,5 UV-I 122 W/m 8,3 C 9,1 C 1,6 km/h (1 Bft) 97,37 %
04.04.2017 10:18 9,0 C 94 % 1020,7 hPa 0,0 l/m 0,0 km/h (0 Bft) NO 55 0 min 0,000 mm 0,5 UV-I 121 W/m 8,1 C 9,0 C 0,0 km/h (0 Bft) 95,74 %
04.04.2017 10:20 8,9 C 93 % 1020,7 hPa 0,0 l/m 0,0 km/h (0 Bft) NO 55 0 min 0,000 mm 0,5 UV-I 120 W/m 7,8 C 8,9 C 0,0 km/h (0 Bft) 95,74 %
04.04.2017 10:22 9,0 C 93 % 1020,7 hPa 0,0 l/m 0,0 km/h (0 Bft) NO 55 0 min 0,000 mm 0,5 UV-I 116 W/m 7,9 C 9,0 C 0,0 km/h (0 Bft) 94,00 %
04.04.2017 10:24 9,1 C 93 % 1020,8 hPa 0,0 l/m 0,0 km/h (0 Bft) NO 55 0 min 0,000 mm 0,5 UV-I 118 W/m 8,0 C 9,1 C 0,0 km/h (0 Bft) 94,34 %
04.04.2017 10:26 9,2 C 93 % 1020,8 hPa 0,0 l/m 0,0 km/h (0 Bft) NO 55 0 min 0,000 mm 0,5 UV-I 121 W/m 8,1 C 9,2 C 0,0 km/h (0 Bft) 97,37 %
04.04.2017 10:28 9,2 C 92 % 1020,8 hPa 0,0 l/m 0,0 km/h (0 Bft) NO 55 0 min 0,000 mm 0,5 UV-I 131 W/m 8,0 C 9,2 C 0,0 km/h (0 Bft) 95,83 %
04.04.2017 10:30 9,2 C 92 % 1020,7 hPa 0,0 l/m 0,0 km/h (0 Bft) NO 55 0 min 0,000 mm 0,6 UV-I 147 W/m 8,0 C 9,2 C 0,0 km/h (0 Bft) 98,08 %
04.04.2017 10:32 9,2 C 92 % 1020,7 hPa 0,0 l/m 0,0 km/h (0 Bft) NO 55 0 min 0,000 mm 0,7 UV-I 170 W/m 8,0 C 9,2 C 0,0 km/h (0 Bft) 92,31 %
04.04.2017 10:34 9,2 C 93 % 1020,7 hPa 0,0 l/m 0,0 km/h (0 Bft) NO 55 0 min 0,000 mm 0,8 UV-I 190 W/m 8,1 C 9,2 C 0,0 km/h (0 Bft) 96,00 %
04.04.2017 10:36 9,4 C 92 % 1020,8 hPa 0,0 l/m 0,0 km/h (0 Bft) NO 55 0 min 0,000 mm 0,9 UV-I 223 W/m 8,2 C 9,4 C 0,0 km/h (0 Bft) 91,49 %
04.04.2017 10:38 9,4 C 92 % 1020,8 hPa 0,0 l/m 0,0 km/h (0 Bft) NO 55 0 min 0,000 mm 1,0 UV-I 244 W/m 8,2 C 9,4 C 0,0 km/h (0 Bft) 92,86 %
04.04.2017 10:40 9,5 C 92 % 1020,7 hPa 0,0 l/m 0,0 km/h (0 Bft) NO 55 0 min 0,000 mm 1,0 UV-I 257 W/m 8,3 C 9,5 C 0,0 km/h (0 Bft) 92,11 %
04.04.2017 10:42 9,6 C 92 % 1020,7 hPa 0,0 l/m 0,2 km/h (0 Bft) NO 55 0 min 0,000 mm 1,0 UV-I 242 W/m 8,4 C 9,6 C 1,6 km/h (1 Bft) 94,00 %
04.04.2017 10:44 9,4 C 91 % 1020,7 hPa 0,0 l/m 0,8 km/h (0 Bft) NO 55 0 min 0,000 mm 1,0 UV-I 247 W/m 8,0 C 9,4 C 3,2 km/h (1 Bft) 92,00 %
04.04.2017 10:46 9,5 C 92 % 1020,7 hPa 0,0 l/m 0,9 km/h (0 Bft) NO 55 0 min 0,000 mm 1,0 UV-I 263 W/m 8,3 C 9,5 C 3,2 km/h (1 Bft) 93,18 %
04.04.2017 10:48 9,6 C 91 % 1020,7 hPa 0,0 l/m 0,0 km/h (0 Bft) NO 55 0 min 0,000 mm 1,1 UV-I 255 W/m 8,2 C 9,6 C 0,0 km/h (0 Bft) 95,74 %
04.04.2017 10:50 9,7 C 92 % 1020,7 hPa 0,0 l/m 0,0 km/h (0 Bft) NO 55 0 min 0,000 mm 1,0 UV-I 221 W/m 8,5 C 9,7 C 0,0 km/h (0 Bft) 96,00 %
04.04.2017 10:52 9,8 C 92 % 1020,7 hPa 0,0 l/m 0,0 km/h (0 Bft) NO 55 0 min 0,000 mm 0,9 UV-I 191 W/m 8,6 C 9,8 C 0,0 km/h (0 Bft) 94,74 %
04.04.2017 10:54 9,7 C 91 % 1020,7 hPa 0,0 l/m 0,0 km/h (0 Bft) NO 55 0 min 0,000 mm 0,9 UV-I 178 W/m 8,3 C 9,7 C 1,6 km/h (1 Bft) 97,87 %
04.04.2017 10:56 9,8 C 92 % 1020,7 hPa 0,0 l/m 3,0 km/h (1 Bft) NO 55 0 min 0,000 mm 0,8 UV-I 170 W/m 8,6 C 9,8 C 4,8 km/h (1 Bft) 94,00 %
04.04.2017 10:58 9,9 C 93 % 1020,7 hPa 0,0 l/m 2,6 km/h (1 Bft) NO 55 0 min 0,000 mm 0,8 UV-I 162 W/m 8,8 C 9,9 C 4,8 km/h (1 Bft) 96,00 %
04.04.2017 11:00 9,9 C 91 % 1020,7 hPa 0,0 l/m 0,4 km/h (0 Bft) NO 55 0 min 0,076 mm 0,7 UV-I 154 W/m 8,5 C 9,9 C 4,8 km/h (1 Bft) 96,00 %
04.04.2017 11:02 9,8 C 91 % 1020,7 hPa 0,0 l/m 4,5 km/h (1 Bft) O-NO 69 0 min 0,000 mm 0,7 UV-I 153 W/m 8,4 C 9,8 C 6,4 km/h (2 Bft) 94,74 %
04.04.2017 11:04 9,8 C 92 % 1020,7 hPa 0,0 l/m 4,4 km/h (1 Bft) O 82 0 min 0,000 mm 0,7 UV-I 166 W/m 8,6 C 9,8 C 6,4 km/h (2 Bft) 94,00 %
04.04.2017 11:06 9,8 C 92 % 1020,7 hPa 0,0 l/m 1,0 km/h (0 Bft) O 82 0 min 0,000 mm 0,8 UV-I 200 W/m 8,6 C 9,8 C 4,8 km/h (1 Bft) 96,23 %
04.04.2017 11:08 9,8 C 92 % 1020,7 hPa 0,0 l/m 0,1 km/h (0 Bft) O 82 0 min 0,000 mm 0,8 UV-I 222 W/m 8,6 C 9,8 C 1,6 km/h (1 Bft) 94,44 %
04.04.2017 11:10 9,8 C 92 % 1020,7 hPa 0,0 l/m 0,2 km/h (0 Bft) O 82 0 min 0,000 mm 0,8 UV-I 221 W/m 8,6 C 9,8 C 1,6 km/h (1 Bft) 96,00 %
04.04.2017 11:12 9,7 C 90 % 1020,8 hPa 0,0 l/m 0,0 km/h (0 Bft) O 82 0 min 0,000 mm 0,8 UV-I 211 W/m 8,1 C 9,7 C 1,6 km/h (1 Bft) 100,00 %
04.04.2017 11:14 9,7 C 91 % 1020,8 hPa 0,0 l/m 0,0 km/h (0 Bft) O 82 0 min 0,000 mm 0,9 UV-I 214 W/m 8,3 C 9,7 C 0,0 km/h (0 Bft) 97,87 %
04.04.2017 11:16 9,8 C 91 % 1020,8 hPa 0,0 l/m 0,0 km/h (0 Bft) O 82 0 min 0,000 mm 0,9 UV-I 236 W/m 8,4 C 9,8 C 0,0 km/h (0 Bft) 100,00 %
04.04.2017 11:18 9,8 C 90 % 1020,7 hPa 0,0 l/m 0,0 km/h (0 Bft) O 82 0 min 0,000 mm 1,1 UV-I 286 W/m 8,2 C 9,8 C 0,0 km/h (0 Bft) 100,00 %
04.04.2017 11:20 9,9 C 90 % 1020,7 hPa 0,0 l/m 0,0 km/h (0 Bft) O 82 0 min 0,000 mm 1,3 UV-I 365 W/m 8,3 C 9,9 C 0,0 km/h (0 Bft) 98,00 %
04.04.2017 11:22 10,0 C 90 % 1020,7 hPa 0,0 l/m 0,0 km/h (0 Bft) O 82 0 min 0,000 mm 1,3 UV-I 333 W/m 8,4 C 10,0 C 0,0 km/h (0 Bft) 97,37 %
04.04.2017 11:24 10,1 C 90 % 1020,7 hPa 0,0 l/m 0,4 km/h (0 Bft) O 82 0 min 0,000 mm 1,3 UV-I 310 W/m 8,5 C 10,1 C 3,2 km/h (1 Bft) 100,00 %
04.04.2017 11:26 10,3 C 91 % 1020,7 hPa 0,0 l/m 1,6 km/h (1 Bft) O 82 0 min 0,000 mm 1,3 UV-I 296 W/m 8,9 C 10,3 C 4,8 km/h (1 Bft) 97,56 %
04.04.2017 11:28 10,4 C 91 % 1020,7 hPa 0,0 l/m 2,5 km/h (1 Bft) O 82 0 min 0,000 mm 1,3 UV-I 284 W/m 9,0 C 10,4 C 4,8 km/h (1 Bft) 97,87 %
04.04.2017 11:30 10,3 C 90 % 1020,6 hPa 0,0 l/m 0,8 km/h (0 Bft) O 82 0 min 0,000 mm 1,3 UV-I 278 W/m 8,7 C 10,3 C 1,6 km/h (1 Bft) 100,00 %
04.04.2017 11:32 10,3 C 90 % 1020,6 hPa 0,0 l/m 1,4 km/h (1 Bft) O 82 0 min 0,000 mm 1,3 UV-I 289 W/m 8,7 C 10,3 C 3,2 km/h (1 Bft) 96,23 %
04.04.2017 11:34 10,3 C 89 % 1020,6 hPa 0,0 l/m 2,9 km/h (1 Bft) O 82 0 min 0,000 mm 1,3 UV-I 309 W/m 8,6 C 10,3 C 4,8 km/h (1 Bft) 97,56 %
04.04.2017 11:36 10,3 C 90 % 1020,6 hPa 0,0 l/m 0,1 km/h (0 Bft) O 82 0 min 0,000 mm 1,3 UV-I 303 W/m 8,7 C 10,3 C 1,6 km/h (1 Bft) 95,74 %
04.04.2017 11:38 10,3 C 89 % 1020,6 hPa 0,0 l/m 0,9 km/h (0 Bft) O 82 0 min 0,000 mm 1,3 UV-I 291 W/m 8,6 C 10,3 C 3,2 km/h (1 Bft) 100,00 %
04.04.2017 11:40 10,3 C 89 % 1020,7 hPa 0,0 l/m 0,4 km/h (0 Bft) O 79 0 min 0,000 mm 1,2 UV-I 274 W/m 8,6 C 10,3 C 1,6 km/h (1 Bft) 98,08 %
04.04.2017 11:42 10,4 C 89 % 1020,7 hPa 0,0 l/m 0,6 km/h (0 Bft) O 79 0 min 0,000 mm 1,2 UV-I 276 W/m 8,7 C 10,4 C 3,2 km/h (1 Bft) 100,00 %
04.04.2017 11:44 10,5 C 89 % 1020,6 hPa 0,0 l/m 0,3 km/h (0 Bft) O-NO 78 0 min 0,000 mm 1,2 UV-I 288 W/m 8,8 C 10,5 C 3,2 km/h (1 Bft) 94,00 %
04.04.2017 11:46 10,5 C 88 % 1020,6 hPa 0,0 l/m 0,9 km/h (0 Bft) O-NO 78 0 min 0,000 mm 1,3 UV-I 301 W/m 8,6 C 10,5 C 3,2 km/h (1 Bft) 97,87 %
04.04.2017 11:48 10,5 C 88 % 1020,6 hPa 0,0 l/m 0,1 km/h (0 Bft) O-NO 78 0 min 0,000 mm 1,3 UV-I 310 W/m 8,6 C 10,5 C 1,6 km/h (1 Bft) 100,00 %
04.04.2017 11:50 10,7 C 88 % 1020,6 hPa 0,0 l/m 1,5 km/h (1 Bft) N-NO 26 0 min 0,000 mm 1,3 UV-I 309 W/m 8,8 C 10,7 C 3,2 km/h (1 Bft) 94,87 %
04.04.2017 11:52 10,7 C 89 % 1020,6 hPa 0,0 l/m 0,7 km/h (0 Bft) N-NO 26 0 min 0,000 mm 1,3 UV-I 309 W/m 9,0 C 10,7 C 3,2 km/h (1 Bft) 94,00 %
04.04.2017 11:54 10,7 C 87 % 1020,6 hPa 0,0 l/m 0,2 km/h (0 Bft) N-NO 26 0 min 0,000 mm 1,4 UV-I 328 W/m 8,6 C 10,7 C 3,2 km/h (1 Bft) 96,23 %
04.04.2017 11:56 10,7 C 87 % 1020,6 hPa 0,0 l/m 2,4 km/h (1 Bft) N-NO 25 0 min 0,000 mm 1,4 UV-I 343 W/m 8,6 C 10,7 C 4,8 km/h (1 Bft) 97,87 %
04.04.2017 11:58 10,7 C 87 % 1020,7 hPa 0,0 l/m 0,4 km/h (0 Bft) N-NO 25 0 min 0,000 mm 1,5 UV-I 345 W/m 8,6 C 10,7 C 1,6 km/h (1 Bft) 92,11 %
04.04.2017 12:00 10,6 C 87 % 1020,6 hPa 0,0 l/m 0,2 km/h (0 Bft) N-NO 25 0 min 0,127 mm 1,5 UV-I 344 W/m 8,5 C 10,6 C 1,6 km/h (1 Bft) 97,87 %
04.04.2017 12:02 10,7 C 89 % 1020,6 hPa 0,0 l/m 0,0 km/h (0 Bft) N-NO 25 0 min 0,000 mm 1,5 UV-I 343 W/m 9,0 C 10,7 C 1,6 km/h (1 Bft) 96,23 %
04.04.2017 12:04 10,8 C 88 % 1020,7 hPa 0,0 l/m 0,2 km/h (0 Bft) N-NO 25 0 min 0,000 mm 1,5 UV-I 350 W/m 8,9 C 10,8 C 1,6 km/h (1 Bft) 93,62 %
04.04.2017 12:06 10,8 C 87 % 1020,6 hPa 0,0 l/m 0,4 km/h (0 Bft) NW 309 0 min 0,000 mm 1,5 UV-I 357 W/m 8,7 C 10,8 C 4,8 km/h (1 Bft) 95,12 %
04.04.2017 12:08 10,9 C 88 % 1020,6 hPa 0,0 l/m 2,5 km/h (1 Bft) W-NW 294 0 min 0,000 mm 1,5 UV-I 358 W/m 9,0 C 10,9 C 6,4 km/h (2 Bft) 97,73 %
04.04.2017 12:10 11,1 C 89 % 1020,5 hPa 0,0 l/m 0,4 km/h (0 Bft) W-NW 294 0 min 0,000 mm 1,5 UV-I 354 W/m 9,4 C 11,1 C 3,2 km/h (1 Bft) 98,00 %
04.04.2017 12:12 11,2 C 88 % 1020,5 hPa 0,0 l/m 1,0 km/h (0 Bft) W-NW 294 0 min 0,000 mm 1,5 UV-I 353 W/m 9,3 C 11,2 C 4,8 km/h (1 Bft) 100,00 %
04.04.2017 12:14 11,2 C 86 % 1020,5 hPa 0,0 l/m 1,4 km/h (1 Bft) W-NW 295 0 min 0,000 mm 1,4 UV-I 344 W/m 8,9 C 11,2 C 3,2 km/h (1 Bft) 100,00 %
04.04.2017 12:16 11,2 C 86 % 1020,5 hPa 0,0 l/m 0,0 km/h (0 Bft) W-NW 295 0 min 0,000 mm 1,4 UV-I 327 W/m 8,9 C 11,2 C 0,0 km/h (0 Bft) 92,00 %
04.04.2017 12:18 11,1 C 86 % 1020,6 hPa 0,0 l/m 0,8 km/h (0 Bft) W-NW 295 0 min 0,000 mm 1,3 UV-I 310 W/m 8,8 C 11,1 C 3,2 km/h (1 Bft) 100,00 %
04.04.2017 12:20 11,2 C 87 % 1020,5 hPa 0,0 l/m 0,7 km/h (0 Bft) W-NW 295 0 min 0,000 mm 1,3 UV-I 299 W/m 9,1 C 11,2 C 3,2 km/h (1 Bft) 98,11 %
04.04.2017 12:22 11,2 C 87 % 1020,6 hPa 0,0 l/m 2,3 km/h (1 Bft) W-NW 297 0 min 0,000 mm 1,2 UV-I 291 W/m 9,1 C 11,2 C 4,8 km/h (1 Bft) 92,45 %
04.04.2017 12:24 11,1 C 86 % 1020,5 hPa 0,0 l/m 0,5 km/h (0 Bft) W-NW 296 0 min 0,000 mm 1,2 UV-I 298 W/m 8,8 C 11,1 C 4,8 km/h (1 Bft) 100,00 %
04.04.2017 12:26 11,1 C 86 % 1020,5 hPa 0,0 l/m 3,4 km/h (1 Bft) W-SW 255 0 min 0,000 mm 1,3 UV-I 321 W/m 8,8 C 11,1 C 4,8 km/h (1 Bft) 98,44 %
04.04.2017 12:28 11,2 C 87 % 1020,5 hPa 0,0 l/m 1,7 km/h (1 Bft) W-SW 257 0 min 0,000 mm 1,4 UV-I 350 W/m 9,1 C 11,2 C 4,8 km/h (1 Bft) 94,34 %
04.04.2017 12:30 11,2 C 86 % 1020,6 hPa 0,0 l/m 3,2 km/h (1 Bft) W-SW 257 0 min 0,000 mm 1,5 UV-I 377 W/m 8,9 C 11,2 C 4,8 km/h (1 Bft) 97,44 %
04.04.2017 12:32 11,2 C 85 % 1020,5 hPa 0,0 l/m 3,2 km/h (1 Bft) W 264 0 min 0,000 mm 1,6 UV-I 388 W/m 8,8 C 11,2 C 4,8 km/h (1 Bft) 97,56 %
04.04.2017 12:34 11,2 C 86 % 1020,5 hPa 0,0 l/m 2,3 km/h (1 Bft) W 265 0 min 0,000 mm 1,6 UV-I 390 W/m 8,9 C 11,2 C 4,8 km/h (1 Bft) 96,23 %
04.04.2017 12:36 11,2 C 85 % 1020,5 hPa 0,0 l/m 1,8 km/h (1 Bft) W 265 0 min 0,000 mm 1,6 UV-I 389 W/m 8,8 C 11,2 C 3,2 km/h (1 Bft) 100,00 %
04.04.2017 12:38 11,3 C 86 % 1020,5 hPa 0,0 l/m 1,3 km/h (1 Bft) W 268 0 min 0,000 mm 1,6 UV-I 380 W/m 9,0 C 11,3 C 3,2 km/h (1 Bft) 98,11 %
04.04.2017 12:40 11,3 C 84 % 1020,5 hPa 0,0 l/m 0,3 km/h (0 Bft) W 269 0 min 0,000 mm 1,5 UV-I 368 W/m 8,7 C 11,3 C 1,6 km/h (1 Bft) 92,11 %
04.04.2017 12:42 11,3 C 84 % 1020,5 hPa 0,0 l/m 0,1 km/h (0 Bft) W 269 0 min 0,000 mm 1,5 UV-I 366 W/m 8,7 C 11,3 C 1,6 km/h (1 Bft) 100,00 %
04.04.2017 12:44 11,4 C 85 % 1020,5 hPa 0,0 l/m 0,8 km/h (0 Bft) W 269 0 min 0,000 mm 1,5 UV-I 367 W/m 9,0 C 11,4 C 3,2 km/h (1 Bft) 97,87 %
04.04.2017 12:46 11,4 C 84 % 1020,5 hPa 0,0 l/m 3,7 km/h (1 Bft) W 263 0 min 0,000 mm 1,5 UV-I 371 W/m 8,8 C 11,4 C 6,4 km/h (2 Bft) 95,45 %
04.04.2017 12:48 11,4 C 83 % 1020,4 hPa 0,0 l/m 2,8 km/h (1 Bft) W 264 0 min 0,000 mm 1,6 UV-I 381 W/m 8,6 C 11,4 C 4,8 km/h (1 Bft) 95,45 %
04.04.2017 12:50 11,4 C 83 % 1020,4 hPa 0,0 l/m 0,6 km/h (0 Bft) W 267 0 min 0,000 mm 1,5 UV-I 378 W/m 8,6 C 11,4 C 1,6 km/h (1 Bft) 100,00 %
04.04.2017 12:52 11,4 C 82 % 1020,4 hPa 0,0 l/m 0,3 km/h (0 Bft) W 267 0 min 0,000 mm 1,5 UV-I 356 W/m 8,4 C 11,4 C 1,6 km/h (1 Bft) 96,77 %
04.04.2017 12:54 11,5 C 83 % 1020,4 hPa 0,0 l/m 1,3 km/h (1 Bft) W 274 0 min 0,000 mm 1,5 UV-I 347 W/m 8,7 C 11,5 C 4,8 km/h (1 Bft) 98,00 %
04.04.2017 12:56 11,7 C 84 % 1020,4 hPa 0,0 l/m 2,1 km/h (1 Bft) W-NW 293 0 min 0,000 mm 1,5 UV-I 344 W/m 9,1 C 11,7 C 4,8 km/h (1 Bft) 93,62 %
04.04.2017 12:58 11,6 C 83 % 1020,4 hPa 0,0 l/m 0,4 km/h (0 Bft) W-NW 293 0 min 0,000 mm 1,4 UV-I 329 W/m 8,8 C 11,6 C 3,2 km/h (1 Bft) 95,74 %
04.04.2017 13:00 11,6 C 83 % 1020,4 hPa 0,0 l/m 1,2 km/h (1 Bft) W-NW 293 0 min 0,178 mm 1,4 UV-I 330 W/m 8,8 C 11,6 C 3,2 km/h (1 Bft) 97,37 %
04.04.2017 13:02 11,6 C 82 % 1020,3 hPa 0,0 l/m 3,0 km/h (1 Bft) W-NW 297 0 min 0,000 mm 1,4 UV-I 335 W/m 8,6 C 11,6 C 6,4 km/h (2 Bft) 96,00 %
04.04.2017 13:04 11,6 C 83 % 1020,4 hPa 0,0 l/m 1,2 km/h (1 Bft) W-NW 296 0 min 0,000 mm 1,5 UV-I 343 W/m 8,8 C 11,6 C 6,4 km/h (2 Bft) 94,00 %
04.04.2017 13:06 11,7 C 84 % 1020,4 hPa 0,0 l/m 2,0 km/h (1 Bft) W-NW 299 0 min 0,000 mm 1,5 UV-I 344 W/m 9,1 C 11,7 C 4,8 km/h (1 Bft) 95,24 %
04.04.2017 13:08 11,7 C 83 % 1020,4 hPa 0,0 l/m 0,4 km/h (0 Bft) W-NW 299 0 min 0,000 mm 1,4 UV-I 333 W/m 8,9 C 11,7 C 1,6 km/h (1 Bft) 97,37 %
04.04.2017 13:10 11,7 C 83 % 1020,4 hPa 0,0 l/m 2,5 km/h (1 Bft) NW 306 0 min 0,000 mm 1,4 UV-I 324 W/m 8,9 C 11,7 C 6,4 km/h (2 Bft) 95,16 %
04.04.2017 13:12 11,6 C 82 % 1020,4 hPa 0,0 l/m 1,2 km/h (1 Bft) NW 307 0 min 0,000 mm 1,4 UV-I 321 W/m 8,6 C 11,6 C 4,8 km/h (1 Bft) 95,12 %
04.04.2017 13:14 11,6 C 84 % 1020,4 hPa 0,0 l/m 1,4 km/h (1 Bft) NW 307 0 min 0,000 mm 1,4 UV-I 329 W/m 9,0 C 11,6 C 3,2 km/h (1 Bft) 95,74 %
04.04.2017 13:16 11,7 C 85 % 1020,4 hPa 0,0 l/m 2,5 km/h (1 Bft) W-NW 297 0 min 0,000 mm 1,4 UV-I 315 W/m 9,3 C 11,7 C 6,4 km/h (2 Bft) 98,11 %
04.04.2017 13:18 11,7 C 83 % 1020,3 hPa 0,0 l/m 4,2 km/h (1 Bft) W-NW 295 0 min 0,000 mm 1,3 UV-I 307 W/m 8,9 C 11,7 C 6,4 km/h (2 Bft) 95,12 %
04.04.2017 13:20 11,7 C 85 % 1020,3 hPa 0,0 l/m 2,7 km/h (1 Bft) W-NW 300 0 min 0,000 mm 1,3 UV-I 303 W/m 9,3 C 11,7 C 4,8 km/h (1 Bft) 96,43 %
04.04.2017 13:22 11,8 C 84 % 1020,3 hPa 0,0 l/m 2,3 km/h (1 Bft) W-NW 300 0 min 0,000 mm 1,3 UV-I 310 W/m 9,2 C 11,8 C 4,8 km/h (1 Bft) 97,56 %
04.04.2017 13:24 11,8 C 84 % 1020,3 hPa 0,0 l/m 0,5 km/h (0 Bft) W-NW 300 0 min 0,000 mm 1,3 UV-I 305 W/m 9,2 C 11,8 C 3,2 km/h (1 Bft) 97,56 %
04.04.2017 13:26 11,9 C 85 % 1020,3 hPa 0,0 l/m 1,0 km/h (0 Bft) NW 304 0 min 0,000 mm 1,3 UV-I 296 W/m 9,5 C 11,9 C 3,2 km/h (1 Bft) 100,00 %
04.04.2017 13:28 11,9 C 84 % 1020,3 hPa 0,0 l/m 0,6 km/h (0 Bft) NW 304 0 min 0,000 mm 1,2 UV-I 287 W/m 9,3 C 11,9 C 3,2 km/h (1 Bft) 97,56 %
04.04.2017 13:30 11,8 C 82 % 1020,2 hPa 0,0 l/m 0,4 km/h (0 Bft) NW 304 0 min 0,000 mm 1,2 UV-I 287 W/m 8,8 C 11,8 C 1,6 km/h (1 Bft) 95,74 %
04.04.2017 13:32 11,9 C 84 % 1020,2 hPa 0,0 l/m 1,0 km/h (0 Bft) NW 304 0 min 0,000 mm 1,2 UV-I 290 W/m 9,3 C 11,9 C 3,2 km/h (1 Bft) 100,00 %
04.04.2017 13:34 11,9 C 84 % 1020,3 hPa 0,0 l/m 0,7 km/h (0 Bft) NW 309 0 min 0,000 mm 1,3 UV-I 295 W/m 9,3 C 11,9 C 3,2 km/h (1 Bft) 97,37 %
04.04.2017 13:36 11,8 C 82 % 1020,2 hPa 0,0 l/m 2,4 km/h (1 Bft) W-NW 298 0 min 0,000 mm 1,3 UV-I 298 W/m 8,8 C 11,8 C 6,4 km/h (2 Bft) 96,23 %
04.04.2017 13:38 11,8 C 84 % 1020,1 hPa 0,0 l/m 2,3 km/h (1 Bft) N-NW 335 0 min 0,000 mm 1,3 UV-I 294 W/m 9,2 C 11,8 C 4,8 km/h (1 Bft) 92,68 %
04.04.2017 13:40 11,9 C 83 % 1020,3 hPa 0,0 l/m 1,4 km/h (1 Bft) N-NW 327 0 min 0,000 mm 1,3 UV-I 292 W/m 9,1 C 11,9 C 4,8 km/h (1 Bft) 98,00 %
04.04.2017 13:42 11,9 C 82 % 1020,1 hPa 0,0 l/m 2,8 km/h (1 Bft) N-NW 327 0 min 0,000 mm 1,3 UV-I 292 W/m 8,9 C 11,9 C 4,8 km/h (1 Bft) 96,23 %
04.04.2017 13:44 11,8 C 81 % 1020,1 hPa 0,0 l/m 1,7 km/h (1 Bft) NW 315 0 min 0,000 mm 1,3 UV-I 296 W/m 8,6 C 11,8 C 4,8 km/h (1 Bft) 100,00 %
04.04.2017 13:46 11,9 C 82 % 1020,1 hPa 0,0 l/m 2,1 km/h (1 Bft) N 360 0 min 0,000 mm 1,3 UV-I 317 W/m 8,9 C 11,9 C 6,4 km/h (2 Bft) 96,23 %
04.04.2017 13:48 11,9 C 83 % 1020,1 hPa 0,0 l/m 0,7 km/h (0 Bft) N 360 0 min 0,000 mm 1,4 UV-I 333 W/m 9,1 C 11,9 C 1,6 km/h (1 Bft) 90,00 %
04.04.2017 13:50 12,1 C 82 % 1020,1 hPa 0,0 l/m 0,8 km/h (0 Bft) N 351 0 min 0,000 mm 1,4 UV-I 345 W/m 9,1 C 12,1 C 3,2 km/h (1 Bft) 96,00 %
04.04.2017 13:52 12,1 C 81 % 1020,1 hPa 0,0 l/m 0,7 km/h (0 Bft) N-NW 343 0 min 0,000 mm 1,5 UV-I 336 W/m 8,9 C 12,1 C 3,2 km/h (1 Bft) 96,30 %
04.04.2017 13:54 12,2 C 82 % 1020,1 hPa 0,0 l/m 2,9 km/h (1 Bft) NW 316 0 min 0,000 mm 1,5 UV-I 342 W/m 9,2 C 12,2 C 6,4 km/h (2 Bft) 97,87 %
04.04.2017 13:56 12,2 C 79 % 1020,1 hPa 0,0 l/m 1,7 km/h (1 Bft) NW 315 0 min 0,000 mm 1,5 UV-I 369 W/m 8,7 C 12,2 C 4,8 km/h (1 Bft) 100,00 %
04.04.2017 13:58 12,2 C 80 % 1020,1 hPa 0,0 l/m 1,3 km/h (1 Bft) NW 315 0 min 0,000 mm 1,6 UV-I 386 W/m 8,9 C 12,2 C 3,2 km/h (1 Bft) 100,00 %
04.04.2017 14:00 12,1 C 79 % 1020,1 hPa 0,0 l/m 0,4 km/h (0 Bft) NW 315 0 min 0,152 mm 1,7 UV-I 389 W/m 8,6 C 12,1 C 1,6 km/h (1 Bft) 98,00 %
04.04.2017 14:02 12,2 C 81 % 1020,1 hPa 0,0 l/m 1,7 km/h (1 Bft) N-NW 328 2 min 0,000 mm 1,7 UV-I 398 W/m 9,0 C 12,2 C 4,8 km/h (1 Bft) 96,23 %
04.04.2017 14:04 12,3 C 81 % 1020,1 hPa 0,0 l/m 1,2 km/h (1 Bft) N-NW 347 0 min 0,000 mm 1,8 UV-I 393 W/m 9,1 C 12,3 C 4,8 km/h (1 Bft) 97,14 %
04.04.2017 14:06 12,4 C 79 % 1020,1 hPa 0,0 l/m 1,0 km/h (0 Bft) N-NW 341 2 min 0,000 mm 1,9 UV-I 496 W/m 8,9 C 12,4 C 3,2 km/h (1 Bft) 100,00 %
04.04.2017 14:08 12,4 C 80 % 1020,1 hPa 0,0 l/m 0,2 km/h (0 Bft) N-NW 341 2 min 0,000 mm 2,0 UV-I 446 W/m 9,0 C 12,4 C 1,6 km/h (1 Bft) 100,00 %
04.04.2017 14:10 12,7 C 80 % 1020,1 hPa 0,0 l/m 0,4 km/h (0 Bft) N-NW 341 2 min 0,000 mm 2,1 UV-I 481 W/m 9,3 C 12,7 C 1,6 km/h (1 Bft) 96,23 %
04.04.2017 14:12 12,7 C 78 % 1020,1 hPa 0,0 l/m 1,0 km/h (0 Bft) N-NW 331 2 min 0,000 mm 2,1 UV-I 500 W/m 9,0 C 12,7 C 3,2 km/h (1 Bft) 97,87 %
04.04.2017 14:14 12,7 C 76 % 1020,2 hPa 0,0 l/m 2,3 km/h (1 Bft) N-NW 327 2 min 0,000 mm 2,0 UV-I 472 W/m 8,6 C 12,7 C 3,2 km/h (1 Bft) 100,00 %
04.04.2017 14:16 12,6 C 76 % 1020,2 hPa 0,0 l/m 1,3 km/h (1 Bft) N-NW 327 2 min 0,000 mm 2,0 UV-I 482 W/m 8,5 C 12,6 C 4,8 km/h (1 Bft) 100,00 %
04.04.2017 14:18 12,7 C 75 % 1020,1 hPa 0,0 l/m 2,8 km/h (1 Bft) NW 325 2 min 0,000 mm 2,3 UV-I 565 W/m 8,4 C 12,7 C 4,8 km/h (1 Bft) 100,00 %
04.04.2017 14:20 12,7 C 75 % 1020,1 hPa 0,0 l/m 4,0 km/h (1 Bft) W 279 2 min 0,000 mm 2,2 UV-I 637 W/m 8,4 C 12,7 C 8,0 km/h (2 Bft) 100,00 %
04.04.2017 14:22 12,8 C 75 % 1020,2 hPa 0,0 l/m 2,4 km/h (1 Bft) W-NW 296 2 min 0,000 mm 2,1 UV-I 555 W/m 8,5 C 12,8 C 4,8 km/h (1 Bft) 94,87 %
04.04.2017 14:24 12,8 C 76 % 1020,2 hPa 0,0 l/m 0,9 km/h (0 Bft) W-NW 296 2 min 0,000 mm 2,0 UV-I 413 W/m 8,7 C 12,8 C 3,2 km/h (1 Bft) 96,00 %
04.04.2017 14:26 12,7 C 75 % 1020,3 hPa 0,0 l/m 3,5 km/h (1 Bft) W-NW 287 0 min 0,000 mm 1,7 UV-I 359 W/m 8,4 C 12,7 C 6,4 km/h (2 Bft) 96,36 %
04.04.2017 14:28 12,6 C 76 % 1020,3 hPa 0,0 l/m 3,5 km/h (1 Bft) W-NW 285 0 min 0,000 mm 1,6 UV-I 326 W/m 8,5 C 12,6 C 6,4 km/h (2 Bft) 91,67 %
04.04.2017 14:30 12,4 C 74 % 1020,2 hPa 0,0 l/m 3,1 km/h (1 Bft) W-NW 285 0 min 0,000 mm 1,6 UV-I 321 W/m 7,9 C 12,4 C 4,8 km/h (1 Bft) 96,23 %
04.04.2017 14:32 12,3 C 76 % 1020,2 hPa 0,0 l/m 2,7 km/h (1 Bft) W-NW 287 2 min 0,000 mm 1,7 UV-I 397 W/m 8,2 C 12,3 C 4,8 km/h (1 Bft) 98,11 %
04.04.2017 14:34 12,5 C 77 % 1020,2 hPa 0,0 l/m 0,7 km/h (0 Bft) W-NW 288 2 min 0,000 mm 1,7 UV-I 427 W/m 8,6 C 12,5 C 3,2 km/h (1 Bft) 100,00 %
04.04.2017 14:36 12,5 C 75 % 1020,1 hPa 0,0 l/m 2,4 km/h (1 Bft) W-NW 284 2 min 0,000 mm 1,7 UV-I 406 W/m 8,2 C 12,5 C 4,8 km/h (1 Bft) 98,00 %
04.04.2017 14:38 12,4 C 74 % 1020,1 hPa 0,0 l/m 1,9 km/h (1 Bft) W-NW 284 2 min 0,000 mm 1,8 UV-I 425 W/m 7,9 C 12,4 C 4,8 km/h (1 Bft) 98,00 %
04.04.2017 14:40 12,4 C 73 % 1020,1 hPa 0,0 l/m 1,5 km/h (1 Bft) W-NW 285 2 min 0,000 mm 1,9 UV-I 475 W/m 7,7 C 12,4 C 4,8 km/h (1 Bft) 92,11 %
04.04.2017 14:42 12,6 C 77 % 1020,1 hPa 0,0 l/m 0,8 km/h (0 Bft) W-NW 286 2 min 0,000 mm 2,0 UV-I 550 W/m 8,7 C 12,6 C 4,8 km/h (1 Bft) 100,00 %
04.04.2017 14:44 12,7 C 75 % 1020,1 hPa 0,0 l/m 1,6 km/h (1 Bft) W-NW 292 2 min 0,000 mm 1,9 UV-I 455 W/m 8,4 C 12,7 C 6,4 km/h (2 Bft) 97,87 %
04.04.2017 14:46 12,7 C 74 % 1020,1 hPa 0,0 l/m 2,1 km/h (1 Bft) W-NW 300 2 min 0,000 mm 1,9 UV-I 478 W/m 8,2 C 12,7 C 8,0 km/h (2 Bft) 95,45 %
04.04.2017 14:48 12,8 C 75 % 1020,1 hPa 0,0 l/m 1,6 km/h (1 Bft) W-NW 286 2 min 0,000 mm 2,0 UV-I 595 W/m 8,5 C 12,8 C 6,4 km/h (2 Bft) 98,11 %
04.04.2017 14:50 12,9 C 74 % 1020,1 hPa 0,0 l/m 3,6 km/h (1 Bft) W-NW 295 2 min 0,000 mm 2,0 UV-I 622 W/m 8,4 C 12,9 C 6,4 km/h (2 Bft) 97,37 %
04.04.2017 14:52 13,1 C 71 % 1020,0 hPa 0,0 l/m 4,0 km/h (1 Bft) W-NW 287 2 min 0,000 mm 2,0 UV-I 585 W/m 8,0 C 13,1 C 6,4 km/h (2 Bft) 95,74 %
04.04.2017 14:54 13,0 C 74 % 1020,0 hPa 0,0 l/m 1,5 km/h (1 Bft) W-NW 287 2 min 0,000 mm 2,0 UV-I 572 W/m 8,5 C 13,0 C 3,2 km/h (1 Bft) 94,00 %
04.04.2017 14:56 13,1 C 74 % 1020,0 hPa 0,0 l/m 4,5 km/h (1 Bft) W 279 2 min 0,000 mm 2,0 UV-I 578 W/m 8,6 C 13,1 C 6,4 km/h (2 Bft) 97,37 %
04.04.2017 14:58 13,0 C 72 % 1020,0 hPa 0,0 l/m 3,3 km/h (1 Bft) W 279 2 min 0,000 mm 1,9 UV-I 516 W/m 8,1 C 13,0 C 6,4 km/h (2 Bft) 88,68 %
04.04.2017 15:00 12,9 C 74 % 1019,9 hPa 0,0 l/m 4,3 km/h (1 Bft) W 279 2 min 0,254 mm 1,7 UV-I 437 W/m 8,4 C 12,9 C 6,4 km/h (2 Bft) 90,57 %
04.04.2017 15:02 12,8 C 71 % 1019,9 hPa 0,0 l/m 0,3 km/h (0 Bft) W 279 2 min 0,000 mm 1,7 UV-I 440 W/m 7,7 C 12,8 C 3,2 km/h (1 Bft) 89,36 %
04.04.2017 15:04 12,8 C 72 % 1019,9 hPa 0,0 l/m 2,9 km/h (1 Bft) W 260 2 min 0,000 mm 1,7 UV-I 448 W/m 7,9 C 12,8 C 9,7 km/h (2 Bft) 95,74 %
04.04.2017 15:06 12,8 C 73 % 1019,9 hPa 0,0 l/m 5,2 km/h (1 Bft) W 279 2 min 0,000 mm 1,6 UV-I 433 W/m 8,1 C 12,8 C 9,7 km/h (2 Bft) 93,33 %
04.04.2017 15:08 12,9 C 73 % 1019,9 hPa 0,0 l/m 3,2 km/h (1 Bft) W 275 0 min 0,000 mm 1,5 UV-I 332 W/m 8,2 C 12,9 C 6,4 km/h (2 Bft) 89,36 %
04.04.2017 15:10 13,0 C 75 % 1019,9 hPa 0,0 l/m 1,6 km/h (1 Bft) W-NW 295 0 min 0,000 mm 1,4 UV-I 345 W/m 8,7 C 13,0 C 4,8 km/h (1 Bft) 94,00 %
04.04.2017 15:12 13,1 C 73 % 1019,9 hPa 0,0 l/m 5,4 km/h (1 Bft) W 277 2 min 0,000 mm 1,5 UV-I 362 W/m 8,4 C 13,1 C 9,7 km/h (2 Bft) 92,68 %
04.04.2017 15:14 12,9 C 72 % 1020,0 hPa 0,0 l/m 3,7 km/h (1 Bft) W 277 2 min 0,000 mm 1,5 UV-I 377 W/m 8,0 C 12,9 C 6,4 km/h (2 Bft) 88,68 %
04.04.2017 15:16 12,9 C 73 % 1019,9 hPa 0,0 l/m 2,2 km/h (1 Bft) NW 306 0 min 0,000 mm 1,4 UV-I 324 W/m 8,2 C 12,9 C 8,0 km/h (2 Bft) 89,47 %
04.04.2017 15:18 12,8 C 71 % 1019,9 hPa 0,0 l/m 3,8 km/h (1 Bft) NW 310 0 min 0,000 mm 1,3 UV-I 302 W/m 7,7 C 12,8 C 6,4 km/h (2 Bft) 89,29 %
04.04.2017 15:20 12,8 C 72 % 1019,9 hPa 0,0 l/m 1,4 km/h (1 Bft) NW 311 0 min 0,000 mm 1,2 UV-I 280 W/m 7,9 C 12,8 C 4,8 km/h (1 Bft) 85,71 %
04.04.2017 15:22 12,8 C 72 % 1019,9 hPa 0,0 l/m 1,7 km/h (1 Bft) NW 312 0 min 0,000 mm 1,2 UV-I 269 W/m 7,9 C 12,8 C 3,2 km/h (1 Bft) 90,00 %
04.04.2017 15:24 12,8 C 72 % 1019,8 hPa 0,0 l/m 3,4 km/h (1 Bft) W-NW 301 0 min 0,000 mm 1,1 UV-I 256 W/m 7,9 C 12,8 C 8,0 km/h (2 Bft) 96,23 %
04.04.2017 15:26 12,8 C 73 % 1019,9 hPa 0,0 l/m 0,9 km/h (0 Bft) W-NW 301 0 min 0,000 mm 1,1 UV-I 252 W/m 8,1 C 12,8 C 3,2 km/h (1 Bft) 90,24 %
04.04.2017 15:28 12,8 C 73 % 1019,8 hPa 0,0 l/m 1,8 km/h (1 Bft) NW 315 0 min 0,000 mm 1,0 UV-I 250 W/m 8,1 C 12,8 C 4,8 km/h (1 Bft) 94,00 %
04.04.2017 15:30 12,8 C 73 % 1019,8 hPa 0,0 l/m 1,7 km/h (1 Bft) NW 313 0 min 0,000 mm 1,0 UV-I 245 W/m 8,1 C 12,8 C 3,2 km/h (1 Bft) 90,24 %
04.04.2017 15:32 12,8 C 73 % 1019,8 hPa 0,0 l/m 2,6 km/h (1 Bft) NW 308 0 min 0,000 mm 1,0 UV-I 238 W/m 8,1 C 12,8 C 6,4 km/h (2 Bft) 94,00 %
04.04.2017 15:34 12,7 C 70 % 1019,8 hPa 0,0 l/m 3,6 km/h (1 Bft) NW 306 0 min 0,000 mm 0,9 UV-I 230 W/m 7,4 C 12,7 C 6,4 km/h (2 Bft) 96,00 %
04.04.2017 15:36 12,7 C 73 % 1019,8 hPa 0,0 l/m 0,9 km/h (0 Bft) NW 306 0 min 0,000 mm 0,9 UV-I 221 W/m 8,0 C 12,7 C 3,2 km/h (1 Bft) 94,74 %
04.04.2017 15:38 12,8 C 73 % 1019,8 hPa 0,0 l/m 1,5 km/h (1 Bft) NW 309 0 min 0,000 mm 0,8 UV-I 211 W/m 8,1 C 12,8 C 6,4 km/h (2 Bft) 98,11 %
04.04.2017 15:40 12,7 C 70 % 1019,8 hPa 0,0 l/m 4,3 km/h (1 Bft) NW 317 0 min 0,000 mm 0,8 UV-I 195 W/m 7,4 C 12,7 C 8,0 km/h (2 Bft) 93,62 %
04.04.2017 15:42 12,7 C 72 % 1019,8 hPa 0,0 l/m 1,5 km/h (1 Bft) NW 317 0 min 0,000 mm 0,7 UV-I 181 W/m 7,8 C 12,7 C 4,8 km/h (1 Bft) 98,11 %
04.04.2017 15:44 12,7 C 73 % 1019,8 hPa 0,0 l/m 3,2 km/h (1 Bft) NW 305 0 min 0,000 mm 0,7 UV-I 170 W/m 8,0 C 12,7 C 6,4 km/h (2 Bft) 95,24 %
04.04.2017 15:46 12,7 C 71 % 1019,8 hPa 0,0 l/m 1,3 km/h (1 Bft) NW 305 0 min 0,000 mm 0,6 UV-I 162 W/m 7,6 C 12,7 C 3,2 km/h (1 Bft) 95,12 %
04.04.2017 15:48 12,7 C 73 % 1019,7 hPa 0,0 l/m 1,4 km/h (1 Bft) NW 305 0 min 0,000 mm 0,6 UV-I 158 W/m 8,0 C 12,7 C 4,8 km/h (1 Bft) 96,00 %
04.04.2017 15:50 12,6 C 71 % 1019,7 hPa 0,0 l/m 1,3 km/h (1 Bft) NW 319 0 min 0,000 mm 0,6 UV-I 159 W/m 7,5 C 12,6 C 4,8 km/h (1 Bft) 96,00 %
04.04.2017 15:53 12,6 C 71 % 1019,8 hPa 0,0 l/m 1,1 km/h (1 Bft) NW 319 0 min 0,000 mm 0,6 UV-I 157 W/m 7,5 C 12,6 C 3,2 km/h (1 Bft) 95,52 %
04.04.2017 15:54 12,6 C 71 % 1019,8 hPa 0,0 l/m 0,6 km/h (0 Bft) NW 319 0 min 0,000 mm 0,6 UV-I 156 W/m 7,5 C 12,6 C 1,6 km/h (1 Bft) 100,00 %
04.04.2017 15:56 12,6 C 71 % 1019,8 hPa 0,0 l/m 1,2 km/h (1 Bft) NW 317 0 min 0,000 mm 0,6 UV-I 156 W/m 7,5 C 12,6 C 4,8 km/h (1 Bft) 98,00 %
04.04.2017 15:58 12,6 C 70 % 1019,8 hPa 0,0 l/m 0,7 km/h (0 Bft) NW 317 0 min 0,000 mm 0,6 UV-I 159 W/m 7,3 C 12,6 C 3,2 km/h (1 Bft) 95,45 %
04.04.2017 16:00 12,5 C 71 % 1019,8 hPa 0,0 l/m 2,0 km/h (1 Bft) NW 317 0 min 0,127 mm 0,6 UV-I 162 W/m 7,4 C 12,5 C 4,8 km/h (1 Bft) 96,00 %
04.04.2017 16:02 12,5 C 72 % 1019,8 hPa 0,0 l/m 2,4 km/h (1 Bft) N-NW 328 0 min 0,000 mm 0,6 UV-I 164 W/m 7,6 C 12,5 C 4,8 km/h (1 Bft) 96,00 %
04.04.2017 16:04 12,5 C 73 % 1019,8 hPa 0,0 l/m 2,7 km/h (1 Bft) NW 315 0 min 0,000 mm 0,6 UV-I 166 W/m 7,8 C 12,5 C 6,4 km/h (2 Bft) 97,87 %
04.04.2017 16:06 12,5 C 74 % 1019,8 hPa 0,0 l/m 1,8 km/h (1 Bft) NW 325 0 min 0,000 mm 0,6 UV-I 171 W/m 8,0 C 12,5 C 4,8 km/h (1 Bft) 97,73 %
04.04.2017 16:08 12,5 C 74 % 1019,8 hPa 0,0 l/m 2,2 km/h (1 Bft) NW 324 0 min 0,000 mm 0,7 UV-I 180 W/m 8,0 C 12,5 C 4,8 km/h (1 Bft) 97,37 %
04.04.2017 16:10 12,5 C 72 % 1019,8 hPa 0,0 l/m 4,6 km/h (1 Bft) NW 315 0 min 0,000 mm 0,7 UV-I 191 W/m 7,6 C 12,5 C 12,9 km/h (3 Bft) 96,43 %
04.04.2017 16:12 12,6 C 74 % 1019,8 hPa 0,0 l/m 0,9 km/h (0 Bft) NW 315 0 min 0,000 mm 0,7 UV-I 203 W/m 8,1 C 12,6 C 3,2 km/h (1 Bft) 96,30 %
04.04.2017 16:14 12,6 C 74 % 1019,8 hPa 0,0 l/m 1,9 km/h (1 Bft) NW 311 0 min 0,000 mm 0,7 UV-I 217 W/m 8,1 C 12,6 C 6,4 km/h (2 Bft) 96,72 %
04.04.2017 16:16 12,6 C 73 % 1019,7 hPa 0,0 l/m 3,8 km/h (1 Bft) NW 324 0 min 0,000 mm 0,8 UV-I 229 W/m 7,9 C 12,6 C 8,0 km/h (2 Bft) 93,62 %
04.04.2017 16:18 12,7 C 73 % 1019,8 hPa 0,0 l/m 2,8 km/h (1 Bft) NW 312 0 min 0,000 mm 0,8 UV-I 232 W/m 8,0 C 12,7 C 4,8 km/h (1 Bft) 95,74 %
04.04.2017 16:20 12,7 C 73 % 1019,7 hPa 0,0 l/m 3,1 km/h (1 Bft) N-NW 327 0 min 0,000 mm 0,8 UV-I 231 W/m 8,0 C 12,7 C 9,7 km/h (2 Bft) 98,00 %
04.04.2017 16:22 12,7 C 73 % 1019,7 hPa 0,0 l/m 2,6 km/h (1 Bft) NW 309 0 min 0,000 mm 0,8 UV-I 230 W/m 8,0 C 12,7 C 6,4 km/h (2 Bft) 95,92 %
04.04.2017 16:24 12,7 C 75 % 1019,7 hPa 0,0 l/m 1,6 km/h (1 Bft) NW 309 0 min 0,000 mm 0,8 UV-I 227 W/m 8,4 C 12,7 C 4,8 km/h (1 Bft) 98,00 %
04.04.2017 16:26 12,8 C 75 % 1019,7 hPa 0,0 l/m 1,0 km/h (0 Bft) W-NW 302 0 min 0,000 mm 0,8 UV-I 227 W/m 8,5 C 12,8 C 6,4 km/h (2 Bft) 97,44 %
04.04.2017 16:28 12,8 C 74 % 1019,7 hPa 0,0 l/m 2,2 km/h (1 Bft) W-NW 303 0 min 0,000 mm 0,8 UV-I 229 W/m 8,3 C 12,8 C 6,4 km/h (2 Bft) 100,00 %
04.04.2017 16:30 12,7 C 74 % 1019,7 hPa 0,0 l/m 2,4 km/h (1 Bft) NW 316 0 min 0,000 mm 0,8 UV-I 235 W/m 8,2 C 12,7 C 4,8 km/h (1 Bft) 97,14 %
04.04.2017 16:32 12,7 C 74 % 1019,7 hPa 0,0 l/m 1,8 km/h (1 Bft) NW 315 0 min 0,000 mm 0,8 UV-I 242 W/m 8,2 C 12,7 C 4,8 km/h (1 Bft) 100,00 %
04.04.2017 16:34 12,8 C 74 % 1019,7 hPa 0,0 l/m 1,4 km/h (1 Bft) NW 317 0 min 0,000 mm 0,8 UV-I 244 W/m 8,3 C 12,8 C 3,2 km/h (1 Bft) 97,37 %
04.04.2017 16:36 12,8 C 75 % 1019,7 hPa 0,0 l/m 2,0 km/h (1 Bft) NW 309 0 min 0,000 mm 0,7 UV-I 244 W/m 8,5 C 12,8 C 4,8 km/h (1 Bft) 98,11 %
04.04.2017 16:38 12,8 C 74 % 1019,8 hPa 0,0 l/m 3,1 km/h (1 Bft) W-NW 294 0 min 0,000 mm 0,7 UV-I 236 W/m 8,3 C 12,8 C 8,0 km/h (2 Bft) 100,00 %
04.04.2017 16:40 12,8 C 76 % 1019,7 hPa 0,0 l/m 2,7 km/h (1 Bft) W-NW 297 0 min 0,000 mm 0,7 UV-I 224 W/m 8,7 C 12,8 C 9,7 km/h (2 Bft) 100,00 %
04.04.2017 16:42 12,8 C 75 % 1019,8 hPa 0,0 l/m 5,7 km/h (1 Bft) W 261 0 min 0,000 mm 0,7 UV-I 215 W/m 8,5 C 12,8 C 16,1 km/h (3 Bft) 96,43 %
04.04.2017 16:44 12,8 C 75 % 1019,8 hPa 0,0 l/m 4,0 km/h (1 Bft) NW 309 0 min 0,000 mm 0,7 UV-I 208 W/m 8,5 C 12,8 C 14,5 km/h (3 Bft) 97,73 %
04.04.2017 16:46 12,8 C 77 % 1019,8 hPa 0,0 l/m 0,8 km/h (0 Bft) W 281 0 min 0,000 mm 0,6 UV-I 199 W/m 8,9 C 12,8 C 6,4 km/h (2 Bft) 94,34 %
04.04.2017 16:48 12,8 C 77 % 1019,8 hPa 0,0 l/m 3,5 km/h (1 Bft) W-NW 283 0 min 0,000 mm 0,6 UV-I 182 W/m 8,9 C 12,8 C 9,7 km/h (2 Bft) 97,87 %
04.04.2017 16:50 12,7 C 75 % 1019,8 hPa 0,0 l/m 2,8 km/h (1 Bft) W-NW 286 0 min 0,000 mm 0,5 UV-I 159 W/m 8,4 C 12,7 C 9,7 km/h (2 Bft) 100,00 %
04.04.2017 16:52 12,7 C 77 % 1019,8 hPa 0,0 l/m 2,2 km/h (1 Bft) W-NW 300 0 min 0,000 mm 0,5 UV-I 142 W/m 8,8 C 12,7 C 4,8 km/h (1 Bft) 97,87 %
04.04.2017 16:54 12,6 C 77 % 1019,8 hPa 0,0 l/m 1,8 km/h (1 Bft) W-NW 286 0 min 0,000 mm 0,2 UV-I 132 W/m 8,7 C 12,6 C 4,8 km/h (1 Bft) 98,00 %
04.04.2017 16:56 12,5 C 77 % 1019,9 hPa 0,0 l/m 1,9 km/h (1 Bft) W-NW 296 0 min 0,000 mm 0,0 UV-I 126 W/m 8,6 C 12,5 C 6,4 km/h (2 Bft) 97,37 %
04.04.2017 16:58 12,4 C 79 % 1019,9 hPa 0,0 l/m 5,1 km/h (1 Bft) NW 308 0 min 0,000 mm 0,0 UV-I 123 W/m 8,9 C 12,4 C 16,1 km/h (3 Bft) 98,11 %
04.04.2017 17:00 12,3 C 78 % 1019,9 hPa 0,0 l/m 5,2 km/h (1 Bft) W 261 0 min 0,102 mm 0,0 UV-I 121 W/m 8,6 C 12,3 C 9,7 km/h (2 Bft) 97,62 %
04.04.2017 17:02 12,2 C 78 % 1019,9 hPa 0,0 l/m 4,9 km/h (1 Bft) W 267 0 min 0,000 mm 0,0 UV-I 121 W/m 8,5 C 12,2 C 9,7 km/h (2 Bft) 96,00 %
04.04.2017 17:04 12,2 C 79 % 1019,9 hPa 0,0 l/m 4,4 km/h (1 Bft) W 279 0 min 0,000 mm 0,0 UV-I 120 W/m 8,7 C 12,2 C 6,4 km/h (2 Bft) 100,00 %
04.04.2017 17:06 12,1 C 79 % 1019,9 hPa 0,0 l/m 6,3 km/h (2 Bft) W 281 0 min 0,000 mm 0,0 UV-I 120 W/m 8,6 C 12,1 C 11,3 km/h (2 Bft) 100,00 %
04.04.2017 17:08 12,1 C 79 % 1019,9 hPa 0,0 l/m 5,7 km/h (1 Bft) W-SW 254 0 min 0,000 mm 0,0 UV-I 120 W/m 8,6 C 12,1 C 9,7 km/h (2 Bft) 97,56 %
04.04.2017 17:10 12,0 C 78 % 1019,9 hPa 0,0 l/m 5,0 km/h (1 Bft) W 267 0 min 0,000 mm 0,0 UV-I 120 W/m 8,3 C 12,0 C 9,7 km/h (2 Bft) 96,23 %
04.04.2017 17:12 11,9 C 78 % 1019,9 hPa 0,0 l/m 6,1 km/h (2 Bft) W 263 0 min 0,000 mm 0,0 UV-I 118 W/m 8,2 C 11,9 C 11,3 km/h (2 Bft) 96,23 %
04.04.2017 17:14 11,9 C 77 % 1019,9 hPa 0,0 l/m 4,2 km/h (1 Bft) W-NW 292 0 min 0,000 mm 0,0 UV-I 115 W/m 8,0 C 11,9 C 9,7 km/h (2 Bft) 96,55 %
04.04.2017 17:16 11,9 C 77 % 1019,9 hPa 0,0 l/m 5,1 km/h (1 Bft) W 271 0 min 0,000 mm 0,0 UV-I 112 W/m 8,0 C 11,9 C 11,3 km/h (2 Bft) 95,77 %
04.04.2017 17:18 11,9 C 78 % 1020,0 hPa 0,0 l/m 3,3 km/h (1 Bft) W 271 0 min 0,000 mm 0,0 UV-I 107 W/m 8,2 C 11,9 C 6,4 km/h (2 Bft) 97,56 %
04.04.2017 17:20 11,9 C 77 % 1020,0 hPa 0,0 l/m 6,8 km/h (2 Bft) W 268 0 min 0,000 mm 0,0 UV-I 102 W/m 8,0 C 11,6 C 11,3 km/h (2 Bft) 92,45 %
04.04.2017 17:22 11,8 C 77 % 1020,0 hPa 0,0 l/m 3,4 km/h (1 Bft) W-NW 290 0 min 0,000 mm 0,0 UV-I 99 W/m 7,9 C 11,8 C 4,8 km/h (1 Bft) 95,12 %
04.04.2017 17:24 11,8 C 76 % 1020,0 hPa 0,0 l/m 3,3 km/h (1 Bft) W 268 0 min 0,000 mm 0,0 UV-I 97 W/m 7,7 C 11,8 C 6,4 km/h (2 Bft) 82,93 %
04.04.2017 17:26 11,8 C 76 % 1020,0 hPa 0,0 l/m 4,0 km/h (1 Bft) W-NW 283 0 min 0,000 mm 0,0 UV-I 96 W/m 7,7 C 11,8 C 6,4 km/h (2 Bft) 96,00 %
04.04.2017 17:28 11,8 C 76 % 1020,0 hPa 0,0 l/m 3,9 km/h (1 Bft) W 263 0 min 0,000 mm 0,0 UV-I 92 W/m 7,7 C 11,8 C 6,4 km/h (2 Bft) 98,08 %
04.04.2017 17:30 11,8 C 77 % 1019,9 hPa 0,0 l/m 3,8 km/h (1 Bft) W 279 0 min 0,000 mm 0,0 UV-I 89 W/m 7,9 C 11,8 C 9,7 km/h (2 Bft) 91,49 %
04.04.2017 17:32 11,8 C 75 % 1020,0 hPa 0,0 l/m 3,4 km/h (1 Bft) W-NW 284 0 min 0,000 mm 0,0 UV-I 88 W/m 7,5 C 11,8 C 6,4 km/h (2 Bft) 93,18 %
04.04.2017 17:34 11,7 C 75 % 1019,9 hPa 0,0 l/m 2,5 km/h (1 Bft) W-NW 289 0 min 0,000 mm 0,0 UV-I 88 W/m 7,4 C 11,7 C 4,8 km/h (1 Bft) 90,24 %
04.04.2017 17:36 11,7 C 74 % 1019,9 hPa 0,0 l/m 1,5 km/h (1 Bft) W-NW 289 0 min 0,000 mm 0,0 UV-I 88 W/m 7,2 C 11,7 C 4,8 km/h (1 Bft) 95,24 %
04.04.2017 17:38 11,7 C 75 % 1019,9 hPa 0,0 l/m 1,8 km/h (1 Bft) W-NW 288 0 min 0,000 mm 0,0 UV-I 88 W/m 7,4 C 11,7 C 4,8 km/h (1 Bft) 96,23 %
04.04.2017 17:40 11,7 C 76 % 1019,9 hPa 0,0 l/m 1,1 km/h (1 Bft) W-NW 288 0 min 0,000 mm 0,0 UV-I 88 W/m 7,6 C 11,7 C 3,2 km/h (1 Bft) 94,55 %
04.04.2017 17:42 11,6 C 73 % 1019,9 hPa 0,0 l/m 5,7 km/h (1 Bft) W 265 0 min 0,000 mm 0,0 UV-I 88 W/m 6,9 C 11,6 C 9,7 km/h (2 Bft) 96,30 %
04.04.2017 17:44 11,6 C 74 % 1019,9 hPa 0,0 l/m 3,0 km/h (1 Bft) W 265 0 min 0,000 mm 0,0 UV-I 86 W/m 7,1 C 11,6 C 4,8 km/h (1 Bft) 100,00 %
04.04.2017 17:46 11,6 C 75 % 1019,9 hPa 0,0 l/m 4,0 km/h (1 Bft) W 265 0 min 0,000 mm 0,0 UV-I 86 W/m 7,3 C 11,6 C 4,8 km/h (1 Bft) 98,00 %
04.04.2017 17:48 11,6 C 74 % 1019,9 hPa 0,0 l/m 5,0 km/h (1 Bft) W 274 0 min 0,000 mm 0,0 UV-I 86 W/m 7,1 C 11,6 C 9,7 km/h (2 Bft) 100,00 %
04.04.2017 17:50 11,6 C 74 % 1019,9 hPa 0,0 l/m 3,9 km/h (1 Bft) W 274 0 min 0,000 mm 0,0 UV-I 86 W/m 7,1 C 11,6 C 6,4 km/h (2 Bft) 95,74 %
04.04.2017 17:52 11,6 C 73 % 1019,9 hPa 0,0 l/m 3,8 km/h (1 Bft) W 274 0 min 0,000 mm 0,0 UV-I 84 W/m 6,9 C 11,6 C 4,8 km/h (1 Bft) 95,92 %
04.04.2017 17:54 11,6 C 74 % 1019,9 hPa 0,0 l/m 4,4 km/h (1 Bft) W 273 0 min 0,000 mm 0,0 UV-I 83 W/m 7,1 C 11,6 C 9,7 km/h (2 Bft) 97,56 %
04.04.2017 17:56 11,6 C 73 % 1019,9 hPa 0,0 l/m 5,3 km/h (1 Bft) W 263 0 min 0,000 mm 0,0 UV-I 82 W/m 6,9 C 11,6 C 9,7 km/h (2 Bft) 94,00 %
04.04.2017 17:58 11,6 C 74 % 1019,9 hPa 0,0 l/m 4,7 km/h (1 Bft) W 268 0 min 0,000 mm 0,0 UV-I 81 W/m 7,1 C 11,6 C 6,4 km/h (2 Bft) 97,87 %
04.04.2017 18:00 11,6 C 74 % 1019,9 hPa 0,0 l/m 5,7 km/h (1 Bft) W 266 0 min 0,000 mm 0,0 UV-I 81 W/m 7,1 C 11,6 C 9,7 km/h (2 Bft) 100,00 %
04.04.2017 18:02 11,6 C 74 % 1019,9 hPa 0,0 l/m 5,6 km/h (1 Bft) W 264 0 min 0,051 mm 0,0 UV-I 83 W/m 7,1 C 11,6 C 9,7 km/h (2 Bft) 100,00 %
04.04.2017 18:04 11,6 C 74 % 1019,9 hPa 0,0 l/m 4,7 km/h (1 Bft) W-SW 257 0 min 0,000 mm 0,0 UV-I 84 W/m 7,1 C 11,6 C 9,7 km/h (2 Bft) 95,74 %
04.04.2017 18:06 11,6 C 74 % 1019,9 hPa 0,0 l/m 4,8 km/h (1 Bft) W 259 0 min 0,000 mm 0,0 UV-I 86 W/m 7,1 C 11,6 C 9,7 km/h (2 Bft) 98,00 %
04.04.2017 18:08 11,6 C 74 % 1019,9 hPa 0,0 l/m 4,7 km/h (1 Bft) W 264 0 min 0,000 mm 0,0 UV-I 84 W/m 7,1 C 11,6 C 6,4 km/h (2 Bft) 95,74 %
04.04.2017 18:10 11,6 C 73 % 1020,0 hPa 0,0 l/m 4,6 km/h (1 Bft) W 265 0 min 0,000 mm 0,0 UV-I 83 W/m 6,9 C 11,6 C 9,7 km/h (2 Bft) 97,73 %
04.04.2017 18:12 11,6 C 74 % 1020,0 hPa 0,0 l/m 5,6 km/h (1 Bft) W 259 0 min 0,000 mm 0,0 UV-I 81 W/m 7,1 C 11,6 C 9,7 km/h (2 Bft) 97,56 %
04.04.2017 18:14 11,6 C 74 % 1020,0 hPa 0,0 l/m 5,2 km/h (1 Bft) W 265 0 min 0,000 mm 0,0 UV-I 79 W/m 7,1 C 11,6 C 9,7 km/h (2 Bft) 100,00 %
04.04.2017 18:16 11,6 C 74 % 1020,0 hPa 0,0 l/m 6,9 km/h (2 Bft) W 259 0 min 0,000 mm 0,0 UV-I 77 W/m 7,1 C 11,3 C 12,9 km/h (3 Bft) 94,00 %
04.04.2017 18:18 11,6 C 74 % 1020,0 hPa 0,0 l/m 7,7 km/h (2 Bft) W 259 0 min 0,000 mm 0,0 UV-I 75 W/m 7,1 C 10,7 C 11,3 km/h (2 Bft) 96,30 %
04.04.2017 18:20 11,6 C 74 % 1019,9 hPa 0,0 l/m 7,5 km/h (2 Bft) W 259 0 min 0,000 mm 0,0 UV-I 73 W/m 7,1 C 10,9 C 11,3 km/h (2 Bft) 98,57 %
04.04.2017 18:22 11,6 C 75 % 1019,9 hPa 0,0 l/m 8,2 km/h (2 Bft) W 263 0 min 0,000 mm 0,0 UV-I 72 W/m 7,3 C 10,4 C 14,5 km/h (3 Bft) 97,44 %
04.04.2017 18:24 11,5 C 74 % 1020,0 hPa 0,0 l/m 8,2 km/h (2 Bft) W 259 0 min 0,000 mm 0,0 UV-I 72 W/m 7,0 C 10,3 C 12,9 km/h (3 Bft) 100,00 %
04.04.2017 18:26 11,5 C 74 % 1020,0 hPa 0,0 l/m 7,1 km/h (2 Bft) W 263 0 min 0,000 mm 0,0 UV-I 74 W/m 7,0 C 11,0 C 11,3 km/h (2 Bft) 100,00 %
04.04.2017 18:28 11,5 C 74 % 1020,0 hPa 0,0 l/m 7,4 km/h (2 Bft) W 266 0 min 0,000 mm 0,0 UV-I 74 W/m 7,0 C 10,8 C 11,3 km/h (2 Bft) 98,11 %
04.04.2017 18:30 11,4 C 75 % 1020,0 hPa 0,0 l/m 7,3 km/h (2 Bft) W 263 0 min 0,000 mm 0,0 UV-I 76 W/m 7,1 C 10,8 C 14,5 km/h (3 Bft) 98,00 %
04.04.2017 18:32 11,4 C 74 % 1020,1 hPa 0,0 l/m 8,2 km/h (2 Bft) W-SW 254 0 min 0,000 mm 0,0 UV-I 76 W/m 6,9 C 10,2 C 14,5 km/h (3 Bft) 94,74 %
04.04.2017 18:34 11,4 C 75 % 1020,1 hPa 0,0 l/m 6,0 km/h (2 Bft) W 263 0 min 0,000 mm 0,0 UV-I 76 W/m 7,1 C 11,4 C 9,7 km/h (2 Bft) 95,83 %
04.04.2017 18:36 11,4 C 76 % 1020,1 hPa 0,0 l/m 8,3 km/h (2 Bft) W 268 0 min 0,000 mm 0,0 UV-I 76 W/m 7,3 C 10,1 C 14,5 km/h (3 Bft) 98,11 %
04.04.2017 18:38 11,4 C 77 % 1020,1 hPa 0,0 l/m 5,1 km/h (1 Bft) W 263 0 min 0,000 mm 0,0 UV-I 76 W/m 7,5 C 11,4 C 6,4 km/h (2 Bft) 100,00 %
04.04.2017 18:40 11,4 C 77 % 1020,1 hPa 0,0 l/m 6,0 km/h (2 Bft) W-SW 243 0 min 0,000 mm 0,0 UV-I 76 W/m 7,5 C 11,4 C 9,7 km/h (2 Bft) 96,00 %
04.04.2017 18:42 11,3 C 78 % 1020,1 hPa 0,0 l/m 6,8 km/h (2 Bft) W-SW 252 0 min 0,000 mm 0,0 UV-I 74 W/m 7,6 C 11,0 C 11,3 km/h (2 Bft) 94,34 %
04.04.2017 18:44 11,3 C 78 % 1020,2 hPa 0,0 l/m 7,1 km/h (2 Bft) W-SW 244 0 min 0,000 mm 0,0 UV-I 72 W/m 7,6 C 10,8 C 12,9 km/h (3 Bft) 94,00 %
04.04.2017 18:46 11,3 C 79 % 1020,2 hPa 0,0 l/m 10,6 km/h (2 Bft) W-SW 254 0 min 0,000 mm 0,0 UV-I 72 W/m 7,8 C 8,7 C 17,7 km/h (3 Bft) 100,00 %
04.04.2017 18:48 11,3 C 79 % 1020,3 hPa 0,0 l/m 8,3 km/h (2 Bft) W-SW 241 0 min 0,000 mm 0,0 UV-I 71 W/m 7,8 C 10,0 C 12,9 km/h (3 Bft) 97,14 %
04.04.2017 18:50 11,3 C 80 % 1020,2 hPa 0,0 l/m 7,6 km/h (2 Bft) W 259 2 min 0,000 mm 0,0 UV-I 70 W/m 8,0 C 10,5 C 14,5 km/h (3 Bft) 98,11 %
04.04.2017 18:52 11,2 C 81 % 1020,3 hPa 0,0 l/m 10,0 km/h (2 Bft) W 270 2 min 0,000 mm 0,0 UV-I 68 W/m 8,1 C 8,9 C 14,5 km/h (3 Bft) 96,00 %
04.04.2017 18:54 11,2 C 81 % 1020,3 hPa 0,0 l/m 9,7 km/h (2 Bft) W-SW 242 2 min 0,000 mm 0,0 UV-I 66 W/m 8,1 C 9,1 C 12,9 km/h (3 Bft) 97,73 %
04.04.2017 18:56 11,2 C 81 % 1020,4 hPa 0,0 l/m 9,7 km/h (2 Bft) W 268 2 min 0,000 mm 0,0 UV-I 62 W/m 8,1 C 9,1 C 14,5 km/h (3 Bft) 100,00 %
04.04.2017 18:58 11,2 C 81 % 1020,4 hPa 0,0 l/m 9,1 km/h (2 Bft) W 264 2 min 0,000 mm 0,0 UV-I 56 W/m 8,1 C 9,4 C 14,5 km/h (3 Bft) 92,68 %
04.04.2017 19:00 11,1 C 81 % 1020,4 hPa 0,0 l/m 9,8 km/h (2 Bft) W 271 0 min 0,050 mm 0,0 UV-I 51 W/m 8,0 C 8,9 C 16,1 km/h (3 Bft) 98,11 %
04.04.2017 19:02 11,1 C 81 % 1020,5 hPa 0,0 l/m 6,1 km/h (2 Bft) W-SW 255 0 min 0,000 mm 0,0 UV-I 46 W/m 8,0 C 11,1 C 9,7 km/h (2 Bft) 95,74 %
04.04.2017 19:04 11,1 C 82 % 1020,5 hPa 0,0 l/m 7,7 km/h (2 Bft) W-SW 249 0 min 0,000 mm 0,0 UV-I 42 W/m 8,1 C 10,2 C 11,3 km/h (2 Bft) 100,00 %
04.04.2017 19:06 11,1 C 82 % 1020,5 hPa 0,0 l/m 6,8 km/h (2 Bft) W-SW 257 0 min 0,000 mm 0,0 UV-I 38 W/m 8,1 C 10,8 C 11,3 km/h (2 Bft) 92,00 %
04.04.2017 19:08 11,0 C 83 % 1020,5 hPa 0,0 l/m 6,8 km/h (2 Bft) W-SW 248 0 min 0,000 mm 0,0 UV-I 34 W/m 8,2 C 10,7 C 11,3 km/h (2 Bft) 96,23 %
04.04.2017 19:10 10,9 C 83 % 1020,5 hPa 0,0 l/m 7,1 km/h (2 Bft) W-NW 293 0 min 0,000 mm 0,0 UV-I 32 W/m 8,1 C 10,4 C 12,9 km/h (3 Bft) 94,29 %
04.04.2017 19:12 10,9 C 82 % 1020,5 hPa 0,0 l/m 6,9 km/h (2 Bft) W 272 0 min 0,000 mm 0,0 UV-I 28 W/m 7,9 C 10,6 C 11,3 km/h (2 Bft) 94,64 %
04.04.2017 19:14 10,9 C 83 % 1020,5 hPa 0,0 l/m 9,7 km/h (2 Bft) W 261 0 min 0,000 mm 0,0 UV-I 26 W/m 8,1 C 8,8 C 12,9 km/h (3 Bft) 87,80 %
04.04.2017 19:16 10,8 C 82 % 1020,6 hPa 0,0 l/m 9,0 km/h (2 Bft) W-NW 290 0 min 0,000 mm 0,0 UV-I 23 W/m 7,9 C 9,1 C 12,9 km/h (3 Bft) 98,11 %
04.04.2017 19:18 10,8 C 82 % 1020,6 hPa 0,0 l/m 6,9 km/h (2 Bft) W-SW 257 0 min 0,000 mm 0,0 UV-I 20 W/m 7,9 C 10,5 C 11,3 km/h (2 Bft) 95,12 %
04.04.2017 19:20 10,8 C 82 % 1020,7 hPa 0,0 l/m 6,9 km/h (2 Bft) W 263 0 min 0,000 mm 0,0 UV-I 18 W/m 7,9 C 10,5 C 9,7 km/h (2 Bft) 95,12 %
04.04.2017 19:22 10,8 C 83 % 1020,6 hPa 0,0 l/m 5,9 km/h (2 Bft) W-SW 258 0 min 0,000 mm 0,0 UV-I 16 W/m 8,0 C 10,8 C 9,7 km/h (2 Bft) 91,53 %
04.04.2017 19:24 10,7 C 83 % 1020,6 hPa 0,0 l/m 5,2 km/h (1 Bft) W-SW 246 2 min 0,000 mm 0,0 UV-I 15 W/m 7,9 C 10,7 C 6,4 km/h (2 Bft) 92,68 %
04.04.2017 19:26 10,7 C 83 % 1020,6 hPa 0,0 l/m 6,3 km/h (2 Bft) W-SW 254 2 min 0,000 mm 0,0 UV-I 13 W/m 7,9 C 10,7 C 8,0 km/h (2 Bft) 93,18 %
04.04.2017 19:28 10,7 C 83 % 1020,6 hPa 0,0 l/m 7,2 km/h (2 Bft) W 270 2 min 0,000 mm 0,0 UV-I 12 W/m 7,9 C 10,1 C 11,3 km/h (2 Bft) 94,44 %
04.04.2017 19:30 10,6 C 83 % 1020,7 hPa 0,0 l/m 6,1 km/h (2 Bft) W 270 0 min 0,000 mm 0,0 UV-I 11 W/m 7,8 C 10,6 C 9,7 km/h (2 Bft) 90,16 %
04.04.2017 19:32 10,6 C 83 % 1020,6 hPa 0,0 l/m 7,9 km/h (2 Bft) W 263 0 min 0,000 mm 0,0 UV-I 10 W/m 7,8 C 9,5 C 12,9 km/h (3 Bft) 94,34 %
04.04.2017 19:34 10,6 C 84 % 1020,7 hPa 0,0 l/m 7,4 km/h (2 Bft) W-SW 257 0 min 0,000 mm 0,0 UV-I 8 W/m 8,0 C 9,9 C 11,3 km/h (2 Bft) 95,12 %
04.04.2017 19:36 10,6 C 84 % 1020,6 hPa 0,0 l/m 8,0 km/h (2 Bft) W 273 0 min 0,000 mm 0,0 UV-I 7 W/m 8,0 C 9,5 C 12,9 km/h (3 Bft) 92,86 %
04.04.2017 19:38 10,5 C 84 % 1020,7 hPa 0,0 l/m 9,4 km/h (2 Bft) W-SW 248 0 min 0,000 mm 0,0 UV-I 6 W/m 7,9 C 8,5 C 12,9 km/h (3 Bft) 92,00 %
04.04.2017 19:40 10,5 C 85 % 1020,7 hPa 0,0 l/m 7,7 km/h (2 Bft) SW 236 0 min 0,000 mm 0,0 UV-I 5 W/m 8,1 C 9,6 C 12,9 km/h (3 Bft) 96,36 %
04.04.2017 19:42 10,5 C 85 % 1020,7 hPa 0,0 l/m 7,4 km/h (2 Bft) W-SW 244 0 min 0,000 mm 0,0 UV-I 5 W/m 8,1 C 9,8 C 11,3 km/h (2 Bft) 94,44 %
04.04.2017 19:44 10,4 C 85 % 1020,7 hPa 0,0 l/m 7,4 km/h (2 Bft) W-SW 244 0 min 0,000 mm 0,0 UV-I 2 W/m 8,0 C 9,7 C 11,3 km/h (2 Bft) 97,87 %
04.04.2017 19:46 10,4 C 85 % 1020,7 hPa 0,0 l/m 7,4 km/h (2 Bft) SW 233 0 min 0,000 mm 0,0 UV-I 0 W/m 8,0 C 9,7 C 12,9 km/h (3 Bft) 96,43 %
04.04.2017 19:48 10,4 C 85 % 1020,7 hPa 0,0 l/m 8,2 km/h (2 Bft) W-SW 246 0 min 0,000 mm 0,0 UV-I 0 W/m 8,0 C 9,1 C 12,9 km/h (3 Bft) 97,56 %
04.04.2017 19:50 10,4 C 85 % 1020,7 hPa 0,0 l/m 9,4 km/h (2 Bft) W-SW 240 0 min 0,000 mm 0,0 UV-I 0 W/m 8,0 C 8,4 C 16,1 km/h (3 Bft) 96,23 %
04.04.2017 19:52 10,4 C 86 % 1020,7 hPa 0,0 l/m 11,1 km/h (2 Bft) W-SW 242 0 min 0,000 mm 0,0 UV-I 0 W/m 8,2 C 7,4 C 16,1 km/h (3 Bft) 95,65 %
04.04.2017 19:54 10,4 C 86 % 1020,8 hPa 0,0 l/m 10,1 km/h (2 Bft) S-SW 202 0 min 0,000 mm 0,0 UV-I 0 W/m 8,2 C 8,0 C 17,7 km/h (3 Bft) 92,96 %
04.04.2017 19:56 10,3 C 87 % 1020,8 hPa 0,0 l/m 14,7 km/h (3 Bft) SW 236 0 min 0,000 mm 0,0 UV-I 0 W/m 8,2 C 5,6 C 19,3 km/h (3 Bft) 97,37 %
04.04.2017 19:58 10,3 C 87 % 1020,9 hPa 0,0 l/m 11,9 km/h (2 Bft) SW 225 0 min 0,000 mm 0,0 UV-I 0 W/m 8,2 C 6,9 C 14,5 km/h (3 Bft) 96,00 %
04.04.2017 20:00 10,3 C 87 % 1020,9 hPa 0,0 l/m 9,4 km/h (2 Bft) S-SW 211 0 min 0,000 mm 0,0 UV-I 0 W/m 8,2 C 8,3 C 12,9 km/h (3 Bft) 95,45 %
04.04.2017 20:02 10,2 C 87 % 1020,9 hPa 0,0 l/m 13,4 km/h (3 Bft) W-SW 237 0 min 0,026 mm 0,0 UV-I 0 W/m 8,1 C 6,1 C 19,3 km/h (3 Bft) 96,00 %
04.04.2017 20:04 10,2 C 88 % 1020,9 hPa 0,0 l/m 10,1 km/h (2 Bft) SW 227 0 min 0,000 mm 0,0 UV-I 0 W/m 8,3 C 7,8 C 19,3 km/h (3 Bft) 93,62 %
04.04.2017 20:06 10,2 C 88 % 1020,9 hPa 0,0 l/m 10,3 km/h (2 Bft) W-SW 248 0 min 0,000 mm 0,0 UV-I 0 W/m 8,3 C 7,6 C 16,1 km/h (3 Bft) 94,00 %
04.04.2017 20:08 10,1 C 88 % 1020,9 hPa 0,0 l/m 10,6 km/h (2 Bft) S-SW 199 0 min 0,000 mm 0,0 UV-I 0 W/m 8,2 C 7,4 C 17,7 km/h (3 Bft) 97,73 %
04.04.2017 20:10 10,1 C 88 % 1021,0 hPa 0,0 l/m 13,6 km/h (3 Bft) SW 230 0 min 0,000 mm 0,0 UV-I 0 W/m 8,2 C 5,9 C 22,5 km/h (4 Bft) 96,00 %
04.04.2017 20:12 10,0 C 89 % 1021,0 hPa 0,0 l/m 9,8 km/h (2 Bft) S-SW 192 0 min 0,000 mm 0,0 UV-I 0 W/m 8,3 C 7,7 C 16,1 km/h (3 Bft) 92,11 %
04.04.2017 20:14 9,9 C 89 % 1021,0 hPa 0,0 l/m 15,0 km/h (3 Bft) SW 228 0 min 0,000 mm 0,0 UV-I 0 W/m 8,2 C 5,0 C 19,3 km/h (3 Bft) 98,21 %
04.04.2017 20:16 9,9 C 89 % 1021,0 hPa 0,0 l/m 13,0 km/h (3 Bft) W-SW 246 0 min 0,000 mm 0,0 UV-I 0 W/m 8,2 C 5,9 C 20,9 km/h (4 Bft) 97,87 %
04.04.2017 20:18 9,8 C 89 % 1021,1 hPa 0,0 l/m 13,3 km/h (3 Bft) S-SW 196 0 min 0,000 mm 0,0 UV-I 0 W/m 8,1 C 5,6 C 20,9 km/h (4 Bft) 93,62 %
04.04.2017 20:20 9,8 C 89 % 1021,1 hPa 0,0 l/m 10,4 km/h (2 Bft) SW 234 0 min 0,000 mm 0,0 UV-I 0 W/m 8,1 C 7,1 C 14,5 km/h (3 Bft) 88,89 %
04.04.2017 20:22 9,8 C 89 % 1021,1 hPa 0,0 l/m 11,7 km/h (2 Bft) SW 236 0 min 0,000 mm 0,0 UV-I 0 W/m 8,1 C 6,4 C 17,7 km/h (3 Bft) 94,92 %
04.04.2017 20:24 9,7 C 89 % 1021,1 hPa 0,0 l/m 11,9 km/h (2 Bft) SW 236 0 min 0,000 mm 0,0 UV-I 0 W/m 8,0 C 6,2 C 19,3 km/h (3 Bft) 96,23 %
04.04.2017 20:26 9,7 C 89 % 1021,2 hPa 0,0 l/m 10,1 km/h (2 Bft) SW 226 0 min 0,000 mm 0,0 UV-I 0 W/m 8,0 C 7,2 C 14,5 km/h (3 Bft) 92,00 %
04.04.2017 20:28 9,6 C 89 % 1021,1 hPa 0,0 l/m 12,0 km/h (2 Bft) SW 214 0 min 0,000 mm 0,0 UV-I 0 W/m 7,9 C 6,1 C 19,3 km/h (3 Bft) 100,00 %
04.04.2017 20:30 9,6 C 89 % 1021,2 hPa 0,0 l/m 14,0 km/h (3 Bft) W-SW 252 0 min 0,000 mm 0,0 UV-I 0 W/m 7,9 C 5,1 C 19,3 km/h (3 Bft) 96,23 %
04.04.2017 20:32 9,6 C 89 % 1021,2 hPa 0,2 l/m 14,0 km/h (3 Bft) W-SW 247 0 min 0,000 mm 0,0 UV-I 0 W/m 7,9 C 5,1 C 19,3 km/h (3 Bft) 97,56 %
04.04.2017 20:34 9,5 C 89 % 1021,3 hPa 0,0 l/m 13,9 km/h (3 Bft) S-SW 213 0 min 0,000 mm 0,0 UV-I 0 W/m 7,8 C 5,0 C 19,3 km/h (3 Bft) 95,12 %
04.04.2017 20:36 9,5 C 89 % 1021,3 hPa 0,0 l/m 13,7 km/h (3 Bft) SW 234 0 min 0,000 mm 0,0 UV-I 0 W/m 7,8 C 5,1 C 19,3 km/h (3 Bft) 92,73 %
04.04.2017 20:38 9,4 C 89 % 1021,3 hPa 0,0 l/m 12,2 km/h (2 Bft) SW 232 0 min 0,000 mm 0,0 UV-I 0 W/m 7,7 C 5,7 C 17,7 km/h (3 Bft) 90,62 %
04.04.2017 20:40 9,4 C 89 % 1021,3 hPa 0,0 l/m 10,6 km/h (2 Bft) W-SW 253 0 min 0,000 mm 0,0 UV-I 0 W/m 7,7 C 6,6 C 16,1 km/h (3 Bft) 98,21 %
04.04.2017 20:42 9,4 C 89 % 1021,3 hPa 0,0 l/m 10,3 km/h (2 Bft) W-SW 251 0 min 0,000 mm 0,0 UV-I 0 W/m 7,7 C 6,8 C 14,5 km/h (3 Bft) 100,00 %
04.04.2017 20:44 9,4 C 89 % 1021,4 hPa 0,0 l/m 8,7 km/h (2 Bft) W-SW 247 0 min 0,000 mm 0,0 UV-I 0 W/m 7,7 C 7,7 C 12,9 km/h (3 Bft) 95,45 %
04.04.2017 20:46 9,3 C 89 % 1021,4 hPa 0,0 l/m 10,1 km/h (2 Bft) W-SW 242 0 min 0,000 mm 0,0 UV-I 0 W/m 7,6 C 6,8 C 16,1 km/h (3 Bft) 95,83 %
04.04.2017 20:48 9,3 C 89 % 1021,4 hPa 0,0 l/m 10,2 km/h (2 Bft) W-SW 253 0 min 0,000 mm 0,0 UV-I 0 W/m 7,6 C 6,7 C 16,1 km/h (3 Bft) 93,75 %
04.04.2017 20:50 9,3 C 89 % 1021,5 hPa 0,0 l/m 9,3 km/h (2 Bft) SW 223 0 min 0,000 mm 0,0 UV-I 0 W/m 7,6 C 7,3 C 16,1 km/h (3 Bft) 96,77 %
04.04.2017 20:52 9,3 C 89 % 1021,4 hPa 0,0 l/m 10,6 km/h (2 Bft) W-SW 238 0 min 0,000 mm 0,0 UV-I 0 W/m 7,6 C 6,5 C 16,1 km/h (3 Bft) 100,00 %
04.04.2017 20:54 9,3 C 89 % 1021,6 hPa 0,0 l/m 8,1 km/h (2 Bft) W-SW 240 0 min 0,000 mm 0,0 UV-I 0 W/m 7,6 C 8,0 C 12,9 km/h (3 Bft) 94,34 %
04.04.2017 20:56 9,3 C 89 % 1021,6 hPa 0,0 l/m 10,0 km/h (2 Bft) W-SW 244 0 min 0,000 mm 0,0 UV-I 0 W/m 7,6 C 6,8 C 14,5 km/h (3 Bft) 100,00 %
04.04.2017 20:58 9,3 C 89 % 1021,6 hPa 0,0 l/m 10,6 km/h (2 Bft) W-SW 244 0 min 0,000 mm 0,0 UV-I 0 W/m 7,6 C 6,5 C 17,7 km/h (3 Bft) 100,00 %
04.04.2017 21:00 9,3 C 89 % 1021,6 hPa 0,0 l/m 11,0 km/h (2 Bft) W-SW 243 0 min 0,000 mm 0,0 UV-I 0 W/m 7,6 C 6,2 C 16,1 km/h (3 Bft) 100,00 %
04.04.2017 21:02 9,2 C 89 % 1021,6 hPa 0,0 l/m 9,1 km/h (2 Bft) SW 229 0 min 0,025 mm 0,0 UV-I 0 W/m 7,5 C 7,3 C 12,9 km/h (3 Bft) 98,11 %
04.04.2017 21:04 9,2 C 89 % 1021,7 hPa 0,0 l/m 11,7 km/h (2 Bft) W-SW 252 0 min 0,000 mm 0,0 UV-I 0 W/m 7,5 C 5,8 C 17,7 km/h (3 Bft) 100,00 %
04.04.2017 21:06 9,2 C 89 % 1021,7 hPa 0,0 l/m 16,4 km/h (3 Bft) W-SW 238 0 min 0,000 mm 0,0 UV-I 0 W/m 7,5 C 3,6 C 24,1 km/h (4 Bft) 97,37 %
04.04.2017 21:08 9,2 C 89 % 1021,7 hPa 0,0 l/m 15,4 km/h (3 Bft) W-SW 239 0 min 0,000 mm 0,0 UV-I 0 W/m 7,5 C 4,0 C 22,5 km/h (4 Bft) 96,43 %
04.04.2017 21:10 9,1 C 88 % 1021,7 hPa 0,0 l/m 13,3 km/h (3 Bft) SW 233 0 min 0,000 mm 0,0 UV-I 0 W/m 7,2 C 4,8 C 20,9 km/h (4 Bft) 93,62 %
04.04.2017 21:12 9,1 C 88 % 1021,7 hPa 0,0 l/m 13,4 km/h (3 Bft) SW 229 0 min 0,000 mm 0,0 UV-I 0 W/m 7,2 C 4,8 C 19,3 km/h (3 Bft) 96,00 %
04.04.2017 21:14 9,1 C 88 % 1021,7 hPa 0,0 l/m 13,6 km/h (3 Bft) W-SW 242 0 min 0,000 mm 0,0 UV-I 0 W/m 7,2 C 4,7 C 19,3 km/h (3 Bft) 97,37 %
04.04.2017 21:16 9,1 C 88 % 1021,7 hPa 0,0 l/m 13,3 km/h (3 Bft) SW 232 0 min 0,000 mm 0,0 UV-I 0 W/m 7,2 C 4,8 C 20,9 km/h (4 Bft) 98,00 %
04.04.2017 21:18 9,0 C 88 % 1021,7 hPa 0,0 l/m 10,9 km/h (2 Bft) SW 231 0 min 0,000 mm 0,0 UV-I 0 W/m 7,1 C 6,0 C 14,5 km/h (3 Bft) 96,43 %
04.04.2017 21:20 9,0 C 88 % 1021,7 hPa 0,0 l/m 13,0 km/h (3 Bft) W-SW 244 0 min 0,000 mm 0,0 UV-I 0 W/m 7,1 C 4,9 C 19,3 km/h (3 Bft) 97,56 %
04.04.2017 21:22 8,9 C 88 % 1021,8 hPa 0,0 l/m 10,6 km/h (2 Bft) SW 225 0 min 0,000 mm 0,0 UV-I 0 W/m 7,0 C 6,0 C 17,7 km/h (3 Bft) 97,56 %
04.04.2017 21:24 8,9 C 88 % 1021,9 hPa 0,0 l/m 13,8 km/h (3 Bft) W-SW 248 0 min 0,000 mm 0,0 UV-I 0 W/m 7,0 C 4,3 C 24,1 km/h (4 Bft) 94,64 %
04.04.2017 21:26 8,9 C 88 % 1022,0 hPa 0,0 l/m 11,9 km/h (2 Bft) W-SW 240 0 min 0,000 mm 0,0 UV-I 0 W/m 7,0 C 5,3 C 17,7 km/h (3 Bft) 97,87 %
04.04.2017 21:28 8,9 C 88 % 1022,0 hPa 0,0 l/m 16,5 km/h (3 Bft) W-SW 240 0 min 0,000 mm 0,0 UV-I 0 W/m 7,0 C 3,2 C 20,9 km/h (4 Bft) 96,00 %
04.04.2017 21:30 8,9 C 88 % 1022,0 hPa 0,0 l/m 15,0 km/h (3 Bft) SW 234 0 min 0,000 mm 0,0 UV-I 0 W/m 7,0 C 3,8 C 20,9 km/h (4 Bft) 92,68 %
04.04.2017 21:32 8,9 C 89 % 1022,0 hPa 0,0 l/m 9,6 km/h (2 Bft) SW 231 0 min 0,000 mm 0,0 UV-I 0 W/m 7,2 C 6,6 C 16,1 km/h (3 Bft) 92,45 %
04.04.2017 21:34 8,9 C 89 % 1022,0 hPa 0,0 l/m 13,2 km/h (3 Bft) SW 225 0 min 0,000 mm 0,0 UV-I 0 W/m 7,2 C 4,6 C 17,7 km/h (3 Bft) 95,12 %
04.04.2017 21:36 8,9 C 89 % 1022,0 hPa 0,0 l/m 12,2 km/h (2 Bft) W-SW 244 0 min 0,000 mm 0,0 UV-I 0 W/m 7,2 C 5,1 C 17,7 km/h (3 Bft) 95,24 %
04.04.2017 21:38 8,9 C 89 % 1022,0 hPa 0,0 l/m 11,7 km/h (2 Bft) SW 231 0 min 0,000 mm 0,0 UV-I 0 W/m 7,2 C 5,4 C 17,7 km/h (3 Bft) 94,34 %
04.04.2017 21:40 8,8 C 89 % 1022,0 hPa 0,0 l/m 12,6 km/h (3 Bft) S-SW 203 0 min 0,000 mm 0,0 UV-I 0 W/m 7,1 C 4,8 C 17,7 km/h (3 Bft) 95,12 %
04.04.2017 21:42 8,8 C 89 % 1021,9 hPa 0,0 l/m 10,4 km/h (2 Bft) SW 227 0 min 0,000 mm 0,0 UV-I 0 W/m 7,1 C 6,0 C 16,1 km/h (3 Bft) 96,23 %
04.04.2017 21:44 8,8 C 89 % 1021,9 hPa 0,0 l/m 12,2 km/h (2 Bft) W-SW 246 0 min 0,000 mm 0,0 UV-I 0 W/m 7,1 C 5,0 C 19,3 km/h (3 Bft) 95,12 %
04.04.2017 21:46 8,8 C 89 % 1021,9 hPa 0,0 l/m 12,0 km/h (2 Bft) W-SW 254 0 min 0,000 mm 0,0 UV-I 0 W/m 7,1 C 5,1 C 17,7 km/h (3 Bft) 94,64 %
04.04.2017 21:48 8,8 C 89 % 1021,8 hPa 0,0 l/m 16,9 km/h (3 Bft) S 188 0 min 0,000 mm 0,0 UV-I 0 W/m 7,1 C 2,9 C 25,7 km/h (4 Bft) 100,00 %
04.04.2017 21:50 8,8 C 89 % 1021,9 hPa 0,0 l/m 15,7 km/h (3 Bft) SW 232 0 min 0,000 mm 0,0 UV-I 0 W/m 7,1 C 3,4 C 22,5 km/h (4 Bft) 100,00 %
04.04.2017 21:52 8,8 C 89 % 1021,8 hPa 0,0 l/m 13,0 km/h (3 Bft) W 259 0 min 0,000 mm 0,0 UV-I 0 W/m 7,1 C 4,6 C 17,7 km/h (3 Bft) 100,00 %
04.04.2017 21:54 8,7 C 89 % 1021,8 hPa 0,0 l/m 12,8 km/h (3 Bft) SW 232 0 min 0,000 mm 0,0 UV-I 0 W/m 7,0 C 4,6 C 19,3 km/h (3 Bft) 95,12 %
04.04.2017 21:56 8,7 C 89 % 1021,9 hPa 0,0 l/m 7,6 km/h (2 Bft) W 259 0 min 0,000 mm 0,0 UV-I 0 W/m 7,0 C 7,8 C 11,3 km/h (2 Bft) 100,00 %
04.04.2017 21:58 8,7 C 89 % 1021,8 hPa 0,0 l/m 11,7 km/h (2 Bft) SW 214 0 min 0,000 mm 0,0 UV-I 0 W/m 7,0 C 5,2 C 17,7 km/h (3 Bft) 95,45 %
04.04.2017 22:00 8,7 C 89 % 1021,8 hPa 0,0 l/m 11,8 km/h (2 Bft) W-SW 253 0 min 0,026 mm 0,0 UV-I 0 W/m 7,0 C 5,1 C 20,9 km/h (4 Bft) 97,87 %
04.04.2017 22:02 8,7 C 89 % 1021,8 hPa 0,0 l/m 15,0 km/h (3 Bft) W-SW 245 0 min 0,000 mm 0,0 UV-I 0 W/m 7,0 C 3,6 C 20,9 km/h (4 Bft) 96,00 %
04.04.2017 22:04 8,7 C 89 % 1021,8 hPa 0,0 l/m 14,5 km/h (3 Bft) SW 223 0 min 0,000 mm 0,0 UV-I 0 W/m 7,0 C 3,8 C 20,9 km/h (4 Bft) 100,00 %
04.04.2017 22:06 8,7 C 89 % 1021,8 hPa 0,0 l/m 15,1 km/h (3 Bft) SW 236 0 min 0,000 mm 0,0 UV-I 0 W/m 7,0 C 3,5 C 19,3 km/h (3 Bft) 97,73 %
04.04.2017 22:08 8,7 C 89 % 1021,8 hPa 0,0 l/m 12,5 km/h (3 Bft) W-SW 253 0 min 0,000 mm 0,0 UV-I 0 W/m 7,0 C 4,8 C 19,3 km/h (3 Bft) 98,00 %
04.04.2017 22:10 8,6 C 89 % 1021,8 hPa 0,0 l/m 12,8 km/h (3 Bft) W 264 0 min 0,000 mm 0,0 UV-I 0 W/m 6,9 C 4,5 C 19,3 km/h (3 Bft) 95,74 %
04.04.2017 22:12 8,7 C 89 % 1021,8 hPa 0,0 l/m 14,5 km/h (3 Bft) SW 236 0 min 0,000 mm 0,0 UV-I 0 W/m 7,0 C 3,8 C 22,5 km/h (4 Bft) 97,87 %
04.04.2017 22:14 8,6 C 88 % 1021,8 hPa 0,0 l/m 17,7 km/h (3 Bft) S 191 0 min 0,000 mm 0,0 UV-I 0 W/m 6,7 C 2,3 C 24,1 km/h (4 Bft) 100,00 %
04.04.2017 22:16 8,6 C 88 % 1021,8 hPa 0,0 l/m 15,0 km/h (3 Bft) SW 236 0 min 0,000 mm 0,0 UV-I 0 W/m 6,7 C 3,4 C 20,9 km/h (4 Bft) 98,28 %
04.04.2017 22:18 8,6 C 88 % 1021,7 hPa 0,0 l/m 14,3 km/h (3 Bft) SW 227 0 min 0,000 mm 0,0 UV-I 0 W/m 6,7 C 3,8 C 22,5 km/h (4 Bft) 100,00 %
04.04.2017 22:20 8,6 C 88 % 1021,7 hPa 0,0 l/m 12,4 km/h (3 Bft) S-SW 206 0 min 0,000 mm 0,0 UV-I 0 W/m 6,7 C 4,7 C 20,9 km/h (4 Bft) 97,87 %
04.04.2017 22:22 8,6 C 88 % 1021,7 hPa 0,0 l/m 12,5 km/h (3 Bft) SW 224 0 min 0,000 mm 0,0 UV-I 0 W/m 6,7 C 4,6 C 22,5 km/h (4 Bft) 98,39 %
04.04.2017 22:24 8,6 C 88 % 1021,7 hPa 0,0 l/m 15,0 km/h (3 Bft) SW 234 0 min 0,000 mm 0,0 UV-I 0 W/m 6,7 C 3,4 C 20,9 km/h (4 Bft) 100,00 %
04.04.2017 22:26 8,6 C 88 % 1021,7 hPa 0,0 l/m 11,7 km/h (2 Bft) W-SW 238 0 min 0,000 mm 0,0 UV-I 0 W/m 6,7 C 5,1 C 17,7 km/h (3 Bft) 100,00 %
04.04.2017 22:28 8,6 C 88 % 1021,7 hPa 0,0 l/m 14,6 km/h (3 Bft) S-SW 202 0 min 0,000 mm 0,0 UV-I 0 W/m 6,7 C 3,6 C 20,9 km/h (4 Bft) 96,23 %
04.04.2017 22:30 8,6 C 88 % 1021,7 hPa 0,0 l/m 11,3 km/h (2 Bft) SW 220 0 min 0,000 mm 0,0 UV-I 0 W/m 6,7 C 5,3 C 19,3 km/h (3 Bft) 100,00 %
04.04.2017 22:32 8,6 C 88 % 1021,8 hPa 0,0 l/m 10,3 km/h (2 Bft) SW 225 0 min 0,000 mm 0,0 UV-I 0 W/m 6,7 C 5,9 C 19,3 km/h (3 Bft) 97,56 %
04.04.2017 22:34 8,6 C 88 % 1021,7 hPa 0,0 l/m 14,6 km/h (3 Bft) W-SW 249 0 min 0,000 mm 0,0 UV-I 0 W/m 6,7 C 3,6 C 24,1 km/h (4 Bft) 98,11 %
04.04.2017 22:36 8,6 C 88 % 1021,8 hPa 0,0 l/m 8,7 km/h (2 Bft) SW 236 0 min 0,000 mm 0,0 UV-I 0 W/m 6,7 C 6,9 C 14,5 km/h (3 Bft) 100,00 %
04.04.2017 22:38 8,6 C 88 % 1021,8 hPa 0,0 l/m 11,4 km/h (2 Bft) S-SW 205 0 min 0,000 mm 0,0 UV-I 0 W/m 6,7 C 5,2 C 17,7 km/h (3 Bft) 96,23 %
04.04.2017 22:40 8,5 C 88 % 1021,8 hPa 0,0 l/m 12,5 km/h (3 Bft) W 269 0 min 0,000 mm 0,0 UV-I 0 W/m 6,6 C 4,5 C 19,3 km/h (3 Bft) 100,00 %
04.04.2017 22:42 8,5 C 88 % 1021,8 hPa 0,0 l/m 10,3 km/h (2 Bft) S-SW 200 0 min 0,000 mm 0,0 UV-I 0 W/m 6,6 C 5,8 C 14,5 km/h (3 Bft) 97,37 %
04.04.2017 22:44 8,5 C 88 % 1021,7 hPa 0,0 l/m 11,9 km/h (2 Bft) SW 231 0 min 0,000 mm 0,0 UV-I 0 W/m 6,6 C 4,8 C 17,7 km/h (3 Bft) 97,87 %
04.04.2017 22:46 8,5 C 88 % 1021,8 hPa 0,0 l/m 9,9 km/h (2 Bft) W 263 0 min 0,000 mm 0,0 UV-I 0 W/m 6,6 C 6,0 C 14,5 km/h (3 Bft) 94,34 %
04.04.2017 22:48 8,5 C 88 % 1021,8 hPa 0,0 l/m 10,1 km/h (2 Bft) W-SW 241 0 min 0,000 mm 0,0 UV-I 0 W/m 6,6 C 5,9 C 14,5 km/h (3 Bft) 94,74 %
04.04.2017 22:50 8,5 C 88 % 1021,7 hPa 0,0 l/m 11,1 km/h (2 Bft) W-SW 247 0 min 0,000 mm 0,0 UV-I 0 W/m 6,6 C 5,3 C 17,7 km/h (3 Bft) 98,31 %
04.04.2017 22:52 8,5 C 88 % 1021,8 hPa 0,0 l/m 8,8 km/h (2 Bft) SW 217 0 min 0,000 mm 0,0 UV-I 0 W/m 6,6 C 6,7 C 19,3 km/h (3 Bft) 94,74 %
04.04.2017 22:54 8,4 C 88 % 1021,8 hPa 0,0 l/m 8,3 km/h (2 Bft) W-SW 244 0 min 0,000 mm 0,0 UV-I 0 W/m 6,5 C 7,0 C 12,9 km/h (3 Bft) 97,92 %
04.04.2017 22:56 8,4 C 88 % 1021,7 hPa 0,0 l/m 8,9 km/h (2 Bft) W-SW 252 0 min 0,000 mm 0,0 UV-I 0 W/m 6,5 C 6,5 C 12,9 km/h (3 Bft) 98,18 %
04.04.2017 22:58 8,4 C 88 % 1021,7 hPa 0,0 l/m 8,4 km/h (2 Bft) SW 220 0 min 0,000 mm 0,0 UV-I 0 W/m 6,5 C 6,9 C 12,9 km/h (3 Bft) 100,00 %
04.04.2017 23:00 8,4 C 88 % 1021,7 hPa 0,0 l/m 8,7 km/h (2 Bft) W-SW 251 0 min 0,000 mm 0,0 UV-I 0 W/m 6,5 C 6,7 C 19,3 km/h (3 Bft) 98,11 %
04.04.2017 23:02 8,4 C 88 % 1021,8 hPa 0,0 l/m 9,0 km/h (2 Bft) SW 232 0 min 0,025 mm 0,0 UV-I 0 W/m 6,5 C 6,5 C 16,1 km/h (3 Bft) 100,00 %
04.04.2017 23:04 8,4 C 89 % 1021,8 hPa 0,0 l/m 10,6 km/h (2 Bft) SW 223 0 min 0,000 mm 0,0 UV-I 0 W/m 6,7 C 5,5 C 14,5 km/h (3 Bft) 97,56 %
04.04.2017 23:06 8,4 C 89 % 1021,8 hPa 0,0 l/m 9,7 km/h (2 Bft) W-SW 242 0 min 0,000 mm 0,0 UV-I 0 W/m 6,7 C 6,0 C 14,5 km/h (3 Bft) 98,11 %
04.04.2017 23:08 8,4 C 89 % 1021,9 hPa 0,0 l/m 7,7 km/h (2 Bft) W 266 0 min 0,000 mm 0,0 UV-I 0 W/m 6,7 C 7,4 C 14,5 km/h (3 Bft) 96,00 %
04.04.2017 23:10 8,4 C 89 % 1021,9 hPa 0,0 l/m 9,1 km/h (2 Bft) SW 225 0 min 0,000 mm 0,0 UV-I 0 W/m 6,7 C 6,4 C 14,5 km/h (3 Bft) 95,74 %
04.04.2017 23:12 8,4 C 89 % 1021,9 hPa 0,0 l/m 6,9 km/h (2 Bft) W-SW 238 0 min 0,000 mm 0,0 UV-I 0 W/m 6,7 C 8,0 C 9,7 km/h (2 Bft) 95,45 %
04.04.2017 23:14 8,4 C 89 % 1021,9 hPa 0,0 l/m 7,8 km/h (2 Bft) SW 234 0 min 0,000 mm 0,0 UV-I 0 W/m 6,7 C 7,3 C 11,3 km/h (2 Bft) 96,88 %
04.04.2017 23:16 8,4 C 89 % 1021,9 hPa 0,0 l/m 9,2 km/h (2 Bft) S-SW 212 0 min 0,000 mm 0,0 UV-I 0 W/m 6,7 C 6,3 C 12,9 km/h (3 Bft) 94,92 %
04.04.2017 23:18 8,4 C 89 % 1021,9 hPa 0,0 l/m 8,8 km/h (2 Bft) S-SW 205 0 min 0,000 mm 0,0 UV-I 0 W/m 6,7 C 6,6 C 17,7 km/h (3 Bft) 95,12 %
04.04.2017 23:20 8,4 C 89 % 1021,9 hPa 0,0 l/m 7,3 km/h (2 Bft) W-SW 245 0 min 0,000 mm 0,0 UV-I 0 W/m 6,7 C 7,7 C 12,9 km/h (3 Bft) 96,43 %
04.04.2017 23:22 8,4 C 89 % 1021,8 hPa 0,0 l/m 10,3 km/h (2 Bft) W-SW 239 0 min 0,000 mm 0,0 UV-I 0 W/m 6,7 C 5,6 C 14,5 km/h (3 Bft) 96,00 %
04.04.2017 23:24 8,4 C 89 % 1021,7 hPa 0,0 l/m 8,5 km/h (2 Bft) W 269 0 min 0,000 mm 0,0 UV-I 0 W/m 6,7 C 6,8 C 17,7 km/h (3 Bft) 95,45 %
04.04.2017 23:26 8,4 C 89 % 1021,8 hPa 0,0 l/m 8,4 km/h (2 Bft) SW 216 0 min 0,000 mm 0,0 UV-I 0 W/m 6,7 C 6,9 C 12,9 km/h (3 Bft) 95,12 %
04.04.2017 23:28 8,4 C 89 % 1021,7 hPa 0,0 l/m 8,7 km/h (2 Bft) SW 222 0 min 0,000 mm 0,0 UV-I 0 W/m 6,7 C 6,7 C 16,1 km/h (3 Bft) 90,91 %
04.04.2017 23:30 8,4 C 89 % 1021,7 hPa 0,0 l/m 12,8 km/h (3 Bft) W 259 0 min 0,000 mm 0,0 UV-I 0 W/m 6,7 C 4,3 C 17,7 km/h (3 Bft) 96,00 %
04.04.2017 23:32 8,3 C 89 % 1021,7 hPa 0,0 l/m 11,1 km/h (2 Bft) SW 225 0 min 0,000 mm 0,0 UV-I 0 W/m 6,6 C 5,1 C 14,5 km/h (3 Bft) 88,68 %
04.04.2017 23:34 8,3 C 89 % 1021,7 hPa 0,0 l/m 8,7 km/h (2 Bft) SW 229 0 min 0,000 mm 0,0 UV-I 0 W/m 6,6 C 6,6 C 12,9 km/h (3 Bft) 92,31 %
04.04.2017 23:36 8,3 C 89 % 1021,7 hPa 0,0 l/m 8,6 km/h (2 Bft) SW 220 0 min 0,000 mm 0,0 UV-I 0 W/m 6,6 C 6,6 C 12,9 km/h (3 Bft) 93,62 %
04.04.2017 23:38 8,3 C 89 % 1021,7 hPa 0,0 l/m 10,2 km/h (2 Bft) S-SW 202 0 min 0,000 mm 0,0 UV-I 0 W/m 6,6 C 5,6 C 12,9 km/h (3 Bft) 94,00 %
04.04.2017 23:40 8,3 C 89 % 1021,6 hPa 0,0 l/m 11,3 km/h (2 Bft) W-SW 244 0 min 0,000 mm 0,0 UV-I 0 W/m 6,6 C 4,9 C 20,9 km/h (4 Bft) 92,00 %
04.04.2017 23:42 8,3 C 89 % 1021,6 hPa 0,0 l/m 13,2 km/h (3 Bft) W-SW 238 0 min 0,000 mm 0,0 UV-I 0 W/m 6,6 C 3,9 C 17,7 km/h (3 Bft) 93,62 %
04.04.2017 23:44 8,3 C 89 % 1021,6 hPa 0,0 l/m 14,6 km/h (3 Bft) SW 220 0 min 0,000 mm 0,0 UV-I 0 W/m 6,6 C 3,3 C 22,5 km/h (4 Bft) 95,74 %
04.04.2017 23:46 8,3 C 89 % 1021,6 hPa 0,0 l/m 11,4 km/h (2 Bft) S-SW 198 0 min 0,000 mm 0,0 UV-I 0 W/m 6,6 C 4,9 C 19,3 km/h (3 Bft) 95,45 %
04.04.2017 23:48 8,3 C 89 % 1021,6 hPa 0,0 l/m 11,0 km/h (2 Bft) W-SW 240 0 min 0,000 mm 0,0 UV-I 0 W/m 6,6 C 5,1 C 19,3 km/h (3 Bft) 95,12 %
04.04.2017 23:50 8,3 C 89 % 1021,5 hPa 0,0 l/m 9,8 km/h (2 Bft) W-SW 242 0 min 0,000 mm 0,0 UV-I 0 W/m 6,6 C 5,8 C 14,5 km/h (3 Bft) 98,21 %
04.04.2017 23:52 8,3 C 89 % 1021,5 hPa 0,0 l/m 9,5 km/h (2 Bft) SW 221 0 min 0,000 mm 0,0 UV-I 0 W/m 6,6 C 6,0 C 14,5 km/h (3 Bft) 95,74 %
04.04.2017 23:54 8,3 C 89 % 1021,5 hPa 0,0 l/m 10,9 km/h (2 Bft) SW 236 0 min 0,000 mm 0,0 UV-I 0 W/m 6,6 C 5,2 C 16,1 km/h (3 Bft) 93,62 %
04.04.2017 23:56 8,3 C 89 % 1021,5 hPa 0,0 l/m 13,2 km/h (3 Bft) W-SW 242 0 min 0,000 mm 0,0 UV-I 0 W/m 6,6 C 3,9 C 20,9 km/h (4 Bft) 97,87 %
04.04.2017 23:58 8,2 C 89 % 1021,5 hPa 0,0 l/m 15,0 km/h (3 Bft) SW 229 0 min 0,000 mm 0,0 UV-I 0 W/m 6,5 C 3,0 C 19,3 km/h (3 Bft) 95,45 %
_ Min-Zeit 23:58 15:34 04:34 - 01:50 - - - - - - 23:58 22:14 02:02 17:24
Minimum _ 8,2 C 70 % 1019,4 hPa - 0,0 km/h (0 Bft) - - - - - - 6,5 C 2,3 C 0,0 km/h (0 Bft) 82,93 %
_ Max-Zeit 14:52 03:56 21:26 00:12 22:14 - - 14:02 15:00 14:18 14:20 13:26 14:52 21:48 00:00
Maximum _ 13,1 C 97 % 1022,0 hPa 0,4 l/m 17,7 km/h
S (3 Bft)
- - 2 min 0,254 mm 2,3 UV-I 637 W/m 9,5 C 13,1 C 25,7 km/h
SW (4 Bft)
100,00 %
Durchschnitt _ 9,9 C 89 % 1020,4 hPa #8,0 l/m 3,7 km/h (1 Bft) W-SW - #1:18 h #1,270 mm 1,2 UV-I 182 W/m 8,0 C 9,2 C 6,6 km/h (2 Bft) 96,52 %